DW7501 Weather Reports


Display with metric or nautical units.
time (UTC)temp
F
wind
direction
speed
MPH
gust
MPH
rain 1hr
in
rain 24hr
in
rain mn
in
humidity
%
barometer
mb
20200603042253 64 79 0.0 1.0 0.00 0.00 0.00 64 1005.4
20200603042153 64 79 0.0 1.0 0.00 0.00 0.00 63 1005.4
20200603042053 64 79 0.0 1.0 0.00 0.00 0.00 63 1005.4
20200603041954 64 79 0.0 1.0 0.00 0.00 0.00 63 1005.4
20200603041853 64 79 0.0 1.0 0.00 0.00 0.00 63 1005.3
20200603041753 64 79 0.0 1.0 0.00 0.00 0.00 63 1005.3
20200603041653 64 79 0.0 1.0 0.00 0.00 0.00 63 1005.2
20200603041552 64 0 0.0 0.0 0.00 0.00 0.00 63 1005.1
20200603041453 64 0 0.0 0.0 0.00 0.00 0.00 63 1005.1
20200603041353 64 0 0.0 0.0 0.00 0.00 0.00 63 1005.1
20200603041253 64 79 0.0 1.0 0.00 0.00 0.00 63 1005.0
20200603041153 64 79 0.0 2.0 0.00 0.00 0.00 63 1004.9
20200603041053 64 78 0.0 3.0 0.00 0.00 0.00 63 1004.9
20200603040954 64 79 0.0 3.0 0.00 0.00 0.00 63 1004.8
20200603040853 64 79 1.0 4.0 0.00 0.00 0.00 63 1004.7
20200603040753 64 79 1.0 4.0 0.00 0.00 0.00 63 1004.6
20200603040654 64 79 1.0 4.0 0.00 0.00 0.00 63 1004.6
20200603040554 64 78 2.0 4.0 0.00 0.00 0.00 64 1004.5
20200603040454 64 75 2.0 4.0 0.00 0.00 0.00 64 1004.5
20200603040353 64 73 2.0 4.0 0.00 0.00 0.00 64 1004.4
20200603040253 64 71 3.0 4.0 0.00 0.00 0.00 64 1004.5
20200603040153 64 69 3.0 4.0 0.00 0.00 0.00 64 1004.5
20200603040053 64 68 3.0 4.0 0.00 0.00 0.00 64 1004.4
20200603035959 64 67 3.0 4.0 0.00 0.00 0.00 64 1004.3
20200603035853 64 66 2.0 4.0 0.00 0.00 0.00 64 1004.4
20200603035753 64 64 2.0 4.0 0.00 0.00 0.00 64 1004.3
20200603035653 64 61 2.0 4.0 0.00 0.00 0.00 64 1004.4
20200603035553 64 59 2.0 4.0 0.00 0.00 0.00 64 1004.4
20200603035454 64 58 1.0 4.0 0.00 0.00 0.00 64 1004.4
20200603035353 64 58 1.0 4.0 0.00 0.00 0.00 64 1004.5
20200603035253 64 58 1.0 3.0 0.00 0.00 0.00 64 1004.5
20200603035153 64 58 1.0 2.0 0.00 0.00 0.00 64 1004.6
20200603035053 64 58 0.0 2.0 0.00 0.00 0.00 64 1004.7
20200603034953 64 58 0.0 2.0 0.00 0.00 0.00 64 1004.8
20200603034853 64 58 0.0 2.0 0.00 0.00 0.00 64 1004.8
20200603034753 64 58 0.0 2.0 0.00 0.00 0.00 64 1004.9
20200603034653 64 58 0.0 2.0 0.00 0.00 0.00 64 1004.9
20200603034553 64 58 0.0 2.0 0.00 0.00 0.00 64 1005.0
20200603034453 63 58 0.0 2.0 0.00 0.00 0.00 64 1005.0
20200603034353 63 58 0.0 2.0 0.00 0.00 0.00 64 1005.0
20200603034253 63 58 1.0 2.0 0.00 0.00 0.00 64 1005.0
20200603034154 63 58 1.0 3.0 0.00 0.00 0.00 64 1005.0
20200603034053 63 58 1.0 3.0 0.00 0.00 0.00 64 1005.0
20200603033953 63 58 1.0 3.0 0.00 0.00 0.00 64 1005.1
20200603033853 63 58 1.0 3.0 0.00 0.01 0.00 64 1005.1
20200603033754 63 58 2.0 3.0 0.00 0.01 0.00 64 1005.1
20200603033653 63 58 1.0 3.0 0.00 0.01 0.00 64 1005.2
20200603033553 63 58 1.0 3.0 0.00 0.01 0.00 64 1005.2
20200603033453 63 58 1.0 3.0 0.00 0.02 0.00 64 1005.1
20200603033353 63 58 1.0 3.0 0.00 0.02 0.00 64 1005.1
20200603033253 63 58 1.0 3.0 0.00 0.02 0.00 64 1005.1
20200603033153 63 58 1.0 3.0 0.00 0.02 0.00 64 1005.1
20200603033053 63 58 1.0 3.0 0.00 0.02 0.00 64 1005.1
20200603032955 63 58 0.0 3.0 0.00 0.03 0.00 64 1005.1
20200603032853 63 58 0.0 3.0 0.00 0.03 0.00 64 1005.1
20200603032753 63 0 0.0 0.0 0.00 0.04 0.00 64 1005.2
20200603032653 63 0 0.0 0.0 0.00 0.04 0.00 64 1005.2
20200603032553 63 0 0.0 0.0 0.00 0.04 0.00 64 1005.2
20200603032453 63 0 0.0 0.0 0.00 0.04 0.00 64 1005.2
20200603032353 63 0 0.0 0.0 0.00 0.04 0.00 63 1005.3
20200603032253 63 0 0.0 0.0 0.00 0.04 0.00 63 1005.3
20200603032153 63 0 0.0 0.0 0.00 0.04 0.00 63 1005.3
20200603032053 63 0 0.0 0.0 0.00 0.04 0.00 63 1005.3
20200603031953 63 0 0.0 0.0 0.00 0.05 0.00 63 1005.5
20200603031854 63 0 0.0 0.0 0.00 0.05 0.00 63 1005.5
20200603031753 63 0 0.0 0.0 0.00 0.05 0.00 63 1005.6
20200603031653 63 0 0.0 0.0 0.00 0.05 0.00 63 1005.6
20200603031553 63 0 0.0 0.0 0.00 0.05 0.00 63 1005.6
20200603031453 63 0 0.0 0.0 0.00 0.05 0.00 63 1005.6
20200603031353 63 0 0.0 0.0 0.00 0.05 0.00 63 1005.7
20200603031253 63 0 0.0 0.0 0.00 0.05 0.00 63 1005.6
20200603031153 63 0 0.0 0.0 0.00 0.05 0.00 63 1005.6
20200603031053 63 0 0.0 0.0 0.00 0.05 0.00 63 1005.6
20200603030953 63 0 0.0 0.0 0.00 0.05 0.00 63 1005.6
20200603030853 63 0 0.0 0.0 0.00 0.05 0.00 63 1005.6
20200603030753 63 0 0.0 0.0 0.00 0.05 0.00 63 1005.6
20200603030653 63 0 0.0 0.0 0.00 0.05 0.00 64 1005.6
20200603030553 62 0 0.0 0.0 0.00 0.05 0.00 64 1005.5
20200603030454 62 0 0.0 0.0 0.00 0.05 0.00 64 1005.5
20200603030353 62 0 0.0 0.0 0.00 0.05 0.00 65 1005.4
20200603030253 62 0 0.0 0.0 0.00 0.05 0.00 65 1005.4
20200603030153 62 0 0.0 0.0 0.00 0.05 0.00 65 1005.5
20200603030053 62 0 0.0 0.0 0.00 0.05 0.00 65 1005.6
20200603025955 62 0 0.0 0.0 0.00 0.05 0.00 65 1005.6
20200603025853 62 0 0.0 0.0 0.00 0.05 0.00 65 1005.6
20200603025753 62 0 0.0 0.0 0.00 0.05 0.00 65 1005.6
20200603025653 62 54 0.0 1.0 0.00 0.05 0.00 65 1005.6
20200603025553 62 54 0.0 2.0 0.00 0.05 0.00 65 1005.6
20200603025454 63 54 0.0 2.0 0.00 0.05 0.00 65 1005.6
20200603025353 63 54 0.0 3.0 0.00 0.05 0.00 65 1005.6
20200603025253 63 54 1.0 3.0 0.00 0.05 0.00 65 1005.6
20200603025153 63 54 1.0 3.0 0.00 0.05 0.00 64 1005.6
20200603025053 63 54 1.0 3.0 0.00 0.05 0.00 65 1005.6
20200603024953 63 54 1.0 3.0 0.00 0.05 0.00 65 1005.6
20200603024853 63 54 1.0 3.0 0.00 0.05 0.00 66 1005.6
20200603024753 63 54 1.0 3.0 0.00 0.05 0.00 66 1005.6
20200603024653 63 54 1.0 3.0 0.00 0.05 0.00 66 1005.7
20200603024552 63 54 1.0 3.0 0.00 0.05 0.00 66 1005.7
20200603024453 63 54 1.0 3.0 0.00 0.05 0.00 65 1005.7
20200603024353 63 55 1.0 3.0 0.00 0.05 0.00 65 1005.7
20200603024253 63 55 0.0 3.0 0.00 0.05 0.00 64 1005.6
20200603024154 63 56 0.0 2.0 0.00 0.05 0.00 64 1005.7
20200603024053 63 58 0.0 2.0 0.00 0.05 0.00 63 1005.7
20200603023954 63 62 0.0 1.0 0.00 0.05 0.00 63 1005.6
20200603023853 63 62 0.0 2.0 0.00 0.05 0.00 63 1005.5
20200603023754 63 62 0.0 2.0 0.00 0.05 0.00 63 1005.4
20200603023653 63 62 0.0 2.0 0.00 0.05 0.00 63 1005.4
20200603023553 63 63 1.0 2.0 0.00 0.05 0.00 63 1005.3
20200603023453 63 63 1.0 2.0 0.00 0.05 0.00 63 1005.3
20200603023353 63 63 1.0 2.0 0.00 0.05 0.00 63 1005.2
20200603023253 63 63 1.0 2.0 0.00 0.05 0.00 63 1005.2
20200603023153 63 63 1.0 2.0 0.00 0.05 0.00 63 1005.2
20200603023052 63 63 1.0 2.0 0.00 0.05 0.00 63 1005.2
20200603022955 62 63 1.0 2.0 0.00 0.05 0.00 63 1005.0
20200603022853 62 63 1.0 2.0 0.00 0.05 0.00 63 1005.0
20200603022753 62 63 0.0 2.0 0.00 0.05 0.00 63 1005.1
20200603022653 62 63 0.0 2.0 0.00 0.05 0.00 63 1005.1
20200603022553 62 63 0.0 2.0 0.00 0.05 0.00 63 1005.1
20200603022453 62 63 0.0 2.0 0.00 0.05 0.00 63 1005.1
20200603022353 62 63 0.0 1.0 0.00 0.05 0.00 63 1005.1
20200603022253 62 0 0.0 0.0 0.00 0.05 0.00 63 1005.1
20200603022152 62 0 0.0 0.0 0.00 0.05 0.00 63 1005.0
20200603022053 62 0 0.0 0.0 0.00 0.05 0.00 63 1005.0
20200603021953 62 0 0.0 0.0 0.00 0.05 0.00 63 1005.0
20200603021853 62 0 0.0 0.0 0.00 0.05 0.00 64 1005.0
20200603021753 62 63 0.0 1.0 0.00 0.05 0.00 64 1004.9
20200603021653 62 63 0.0 1.0 0.00 0.05 0.00 64 1004.9
20200603021553 62 63 0.0 1.0 0.00 0.05 0.00 64 1004.9
20200603021454 62 63 0.0 1.0 0.00 0.05 0.00 64 1004.9
20200603021353 62 63 0.0 1.0 0.00 0.05 0.00 64 1005.0
20200603021252 62 63 0.0 2.0 0.00 0.05 0.00 64 1004.9
20200603021153 62 63 0.0 2.0 0.00 0.05 0.00 64 1004.9
20200603021052 62 63 0.0 3.0 0.00 0.05 0.00 64 1004.8
20200603020953 62 63 1.0 3.0 0.00 0.05 0.00 64 1004.7
20200603020853 62 62 1.0 4.0 0.00 0.05 0.00 64 1004.6
20200603020753 62 52 1.0 4.0 0.00 0.05 0.00 64 1004.6
20200603020653 62 44 1.0 4.0 0.00 0.05 0.00 64 1004.5
20200603020553 62 42 1.0 4.0 0.00 0.05 0.00 64 1004.5
20200603020453 62 42 1.0 4.0 0.00 0.05 0.00 64 1004.4
20200603020353 62 37 2.0 4.0 0.00 0.05 0.00 64 1004.3
20200603020253 62 28 2.0 4.0 0.00 0.05 0.00 64 1004.3
20200603020154 62 21 2.0 4.0 0.00 0.05 0.00 64 1004.3
20200603020053 62 13 2.0 4.0 0.00 0.06 0.00 65 1004.3
20200603015955 62 5 2.0 4.0 0.00 0.06 0.00 65 1004.3
20200603015853 62 353 1.0 3.0 0.00 0.06 0.00 65 1004.5
20200603015753 62 349 1.0 3.0 0.00 0.06 0.00 65 1004.4
20200603015653 62 349 1.0 3.0 0.00 0.06 0.00 65 1004.3
20200603015553 62 349 1.0 3.0 0.00 0.06 0.00 65 1004.3
20200603015453 62 349 1.0 3.0 0.00 0.06 0.00 66 1004.3
20200603015352 62 349 1.0 3.0 0.00 0.06 0.00 66 1004.3
20200603015253 62 349 1.0 3.0 0.00 0.06 0.00 66 1004.3
20200603015153 62 349 1.0 3.0 0.00 0.06 0.00 66 1004.4
20200603015052 62 349 1.0 3.0 0.00 0.06 0.00 66 1004.4
20200603014953 62 349 1.0 3.0 0.00 0.06 0.00 66 1004.4
20200603014853 62 349 0.0 3.0 0.00 0.06 0.00 66 1004.5
20200603014753 62 349 0.0 2.0 0.00 0.06 0.00 65 1004.5
20200603014653 62 349 0.0 1.0 0.00 0.06 0.00 66 1004.5
20200603014553 62 0 0.0 0.0 0.00 0.06 0.00 66 1004.6
20200603014453 62 0 0.0 0.0 0.00 0.06 0.00 66 1004.6
20200603014352 62 0 0.0 0.0 0.00 0.06 0.00 66 1004.5
20200603014253 62 0 0.0 0.0 0.00 0.06 0.00 66 1004.5
20200603014153 62 350 0.0 1.0 0.00 0.06 0.00 66 1004.5
20200603014052 62 350 0.0 1.0 0.00 0.06 0.00 66 1004.5
20200603013953 62 350 0.0 1.0 0.00 0.06 0.00 66 1004.5
20200603013853 62 350 0.0 1.0 0.00 0.06 0.00 66 1004.6
20200603013753 63 350 0.0 1.0 0.00 0.06 0.00 68 1004.6
20200603013653 63 350 0.0 1.0 0.00 0.06 0.00 66 1004.6
20200603013553 63 350 0.0 1.0 0.00 0.06 0.00 66 1004.7
20200603013453 63 350 0.0 1.0 0.00 0.06 0.00 66 1004.6
20200603013353 63 350 0.0 1.0 0.00 0.06 0.00 66 1004.7
20200603013252 63 350 0.0 1.0 0.00 0.06 0.00 66 1004.7
20200603013153 63 350 0.0 1.0 0.00 0.06 0.00 65 1004.8
20200603013053 63 0 0.0 0.0 0.00 0.06 0.00 65 1004.8
20200603012954 63 0 0.0 0.0 0.00 0.06 0.00 65 1004.6
20200603012853 63 0 0.0 0.0 0.00 0.06 0.00 65 1004.6
20200603012753 63 0 0.0 0.0 0.00 0.06 0.00 65 1004.5
20200603012653 63 349 0.0 2.0 0.00 0.06 0.00 65 1004.4
20200603012552 63 349 0.0 4.0 0.00 0.06 0.00 65 1004.4
20200603012453 63 349 1.0 4.0 0.00 0.06 0.00 66 1004.3
20200603012352 63 349 1.0 5.0 0.00 0.06 0.00 66 1004.3
20200603012253 63 349 1.0 5.0 0.00 0.06 0.00 66 1004.2
20200603012153 63 348 2.0 5.0 0.00 0.06 0.00 66 1004.1
20200603012052 63 348 2.0 5.0 0.00 0.06 0.00 67 1004.1
20200603011954 63 348 2.0 5.0 0.00 0.06 0.00 67 1004.1
20200603011853 63 348 2.0 5.0 0.00 0.06 0.00 67 1004.0
20200603011753 63 348 2.0 5.0 0.00 0.06 0.00 68 1004.1
20200603011653 63 348 2.0 5.0 0.00 0.06 0.00 68 1004.1
20200603011553 63 348 2.0 5.0 0.00 0.06 0.00 68 1004.2
20200603011453 63 347 2.0 5.0 0.00 0.06 0.00 68 1004.2
20200603011353 63 347 1.0 5.0 0.00 0.06 0.00 68 1004.3
20200603011253 63 346 1.0 5.0 0.00 0.06 0.00 68 1004.3
20200603011153 64 346 0.0 4.0 0.00 0.06 0.00 68 1004.3
20200603011053 64 346 0.0 2.0 0.00 0.06 0.00 68 1004.3
20200603010953 64 346 0.0 2.0 0.00 0.06 0.00 69 1004.3
20200603010853 64 346 0.0 2.0 0.00 0.07 0.00 69 1004.4
20200603010752 64 346 0.0 2.0 0.00 0.07 0.00 70 1004.4
20200603010652 64 346 0.0 3.0 0.00 0.07 0.00 70 1004.3
20200603010553 64 346 0.0 3.0 0.00 0.07 0.00 70 1004.4
20200603010454 64 346 1.0 3.0 0.00 0.07 0.00 70 1004.4
20200603010353 64 346 1.0 3.0 0.00 0.07 0.00 70 1004.4
20200603010253 64 346 1.0 3.0 0.00 0.07 0.00 71 1004.5
20200603010153 64 346 1.0 4.0 0.00 0.07 0.00 71 1004.5
20200603010053 65 346 1.0 4.0 0.00 0.07 0.00 71 1004.5
20200603005955 65 346 1.0 4.0 0.00 0.07 0.00 72 1004.5
20200603005852 65 346 1.0 4.0 0.00 0.07 0.00 72 1004.5
20200603005753 65 346 1.0 4.0 0.00 0.08 0.00 72 1004.5
20200603005653 65 346 1.0 4.0 0.00 0.08 0.00 73 1004.6
20200603005552 65 346 1.0 4.0 0.00 0.08 0.00 73 1004.5
20200603005453 66 346 1.0 4.0 0.00 0.08 0.00 73 1004.6
20200603005352 66 346 1.0 4.0 0.00 0.08 0.00 73 1004.6
20200603005252 66 346 1.0 4.0 0.00 0.09 0.00 74 1004.6
20200603005153 66 346 1.0 4.0 0.00 0.09 0.00 74 1004.6
20200603005052 67 346 1.0 4.0 0.00 0.09 0.00 74 1004.7
20200603004953 67 345 2.0 4.0 0.00 0.09 0.00 74 1004.7
20200603004853 67 344 2.0 4.0 0.00 0.10 0.00 74 1004.7
20200603004753 67 343 1.0 4.0 0.00 0.10 0.00 74 1004.6
20200603004653 68 342 1.0 4.0 0.00 0.10 0.00 75 1004.7
20200603004552 68 342 1.0 4.0 0.00 0.10 0.00 75 1004.7
20200603004453 68 341 1.0 4.0 0.00 0.10 0.00 75 1004.7
20200603004352 68 335 1.0 7.0 0.00 0.10 0.00 75 1004.7
20200603004253 69 329 1.0 7.0 0.00 0.10 0.00 75 1004.7
20200603004153 69 309 1.0 7.0 0.00 0.11 0.00 75 1004.8
20200603004052 70 294 1.0 7.0 0.00 0.11 0.00 75 1004.8
20200603003953 70 281 2.0 7.0 0.00 0.11 0.00 75 1004.8
20200603003853 70 278 2.0 8.0 0.00 0.12 0.00 75 1004.8
20200603003753 70 276 3.0 8.0 0.00 0.12 0.00 75 1004.8
20200603003653 70 274 4.0 9.0 0.00 0.12 0.00 75 1004.8
20200603003553 70 273 4.0 10.0 0.00 0.12 0.00 75 1004.8
20200603003453 70 272 5.0 10.0 0.00 0.12 0.00 75 1004.8
20200603003353 70 271 6.0 10.0 0.00 0.12 0.00 75 1004.8
20200603003252 70 270 6.0 10.0 0.00 0.12 0.00 75 1004.8
20200603003153 71 271 6.0 10.0 0.00 0.12 0.00 75 1004.8
20200603003053 71 270 6.0 10.0 0.00 0.12 0.00 75 1004.8
20200603002954 71 270 6.0 10.0 0.00 0.13 0.00 75 1004.8
20200603002853 71 270 5.0 10.0 0.00 0.13 0.00 75 1004.8
20200603002753 71 270 5.0 10.0 0.00 0.13 0.00 75 1004.7
20200603002652 71 271 4.0 10.0 0.00 0.13 0.00 75 1004.8
20200603002553 71 272 3.0 9.0 0.00 0.13 0.00 75 1004.8
20200603002452 71 274 3.0 9.0 0.00 0.14 0.00 75 1004.8
20200603002353 71 277 2.0 9.0 0.00 0.14 0.00 74 1004.8
20200603002252 72 282 1.0 7.0 0.00 0.14 0.00 74 1004.9
20200603002152 72 280 1.0 7.0 0.00 0.14 0.00 75 1004.9
20200603002053 72 301 1.0 4.0 0.00 0.14 0.00 75 1004.9
20200603001953 72 305 0.0 3.0 0.00 0.14 0.00 75 1004.9
20200603001852 72 308 0.0 3.0 0.00 0.14 0.00 75 1005.0
20200603001753 72 321 0.0 3.0 0.00 0.14 0.00 75 1005.0
20200603001652 72 320 0.0 3.0 0.00 0.14 0.00 74 1005.0
20200603001553 72 320 0.0 3.0 0.00 0.14 0.00 74 1005.0
20200603001453 72 319 0.0 3.0 0.00 0.15 0.00 74 1005.1
20200603001353 72 313 0.0 3.0 0.00 0.15 0.00 74 1005.1
20200603001253 72 311 0.0 3.0 0.00 0.15 0.00 74 1005.1
20200603001153 72 305 1.0 5.0 0.00 0.15 0.00 74 1005.0
20200603001053 72 293 1.0 6.0 0.00 0.16 0.00 74 1005.0
20200603000953 72 290 1.0 6.0 0.00 0.16 0.00 74 1005.0
20200603000853 72 285 2.0 6.0 0.00 0.16 0.00 74 1005.0
20200603000753 72 282 2.0 7.0 0.00 0.16 0.00 74 1005.0
20200603000652 72 280 2.0 7.0 0.00 0.16 0.00 74 1005.0
20200603000554 73 279 3.0 7.0 0.00 0.16 0.00 74 1005.0
20200603000453 73 277 3.0 8.0 0.00 0.16 0.00 74 1005.0
20200603000354 73 276 4.0 8.0 0.00 0.16 0.00 74 1005.0
20200603000253 73 275 4.0 8.0 0.00 0.16 0.00 74 1005.0
20200603000153 73 273 4.0 8.0 0.00 0.16 0.00 74 1005.0
20200603000053 73 272 4.0 8.0 0.00 0.16 0.00 74 1005.0
20200602235956 73 271 4.0 8.0 0.00 0.16 0.00 74 1005.0
20200602235853 73 271 5.0 9.0 0.00 0.17 0.00 74 1005.0
20200602235752 73 271 5.0 9.0 0.00 0.17 0.00 74 1005.0
20200602235653 73 271 5.0 9.0 0.00 0.17 0.00 74 1005.0
20200602235552 73 270 5.0 9.0 0.00 0.17 0.00 74 1005.0
20200602235453 73 270 5.0 10.0 0.00 0.17 0.00 74 1005.0
20200602235353 74 270 6.0 10.0 0.00 0.17 0.00 74 1005.0
20200602235252 74 268 6.0 11.0 0.00 0.17 0.00 74 1005.0
20200602235153 74 267 6.0 11.0 0.00 0.17 0.00 74 1004.9
20200602235052 74 266 7.0 11.0 0.00 0.17 0.00 73 1004.9
20200602234953 74 265 7.0 11.0 0.00 0.17 0.00 73 1004.9
20200602234853 74 265 7.0 11.0 0.00 0.17 0.00 74 1004.9
20200602234753 74 264 7.0 11.0 0.00 0.17 0.00 73 1004.9
20200602234653 74 264 7.0 11.0 0.00 0.17 0.00 73 1004.9
20200602234552 74 264 7.0 12.0 0.00 0.17 0.00 74 1004.9
20200602234453 74 264 7.0 12.0 0.00 0.17 0.00 73 1004.9
20200602234352 74 265 7.0 12.0 0.00 0.17 0.00 73 1004.9
20200602234253 74 265 7.0 12.0 0.00 0.17 0.00 73 1005.0
20200602234153 74 266 7.0 12.0 0.00 0.17 0.00 73 1005.1
20200602234052 75 267 7.0 12.0 0.00 0.17 0.00 73 1005.0
20200602233953 75 268 7.0 12.0 0.00 0.17 0.00 73 1005.1
20200602233852 75 268 7.0 12.0 0.00 0.17 0.00 73 1005.1
20200602233753 75 269 7.0 12.0 0.00 0.17 0.00 73 1005.1
20200602233653 75 268 7.0 12.0 0.00 0.17 0.00 73 1005.1
20200602233552 75 268 7.0 11.0 0.00 0.17 0.00 73 1005.1
20200602233453 75 267 7.0 11.0 0.00 0.17 0.00 73 1005.1
20200602233352 75 267 7.0 10.0 0.00 0.17 0.00 73 1005.1
20200602233253 75 267 7.0 10.0 0.00 0.17 0.00 73 1005.1
20200602233152 76 267 6.0 10.0 0.00 0.17 0.00 73 1005.1
20200602233053 76 267 6.0 10.0 0.00 0.17 0.00 73 1005.1
20200602232955 76 268 6.0 10.0 0.00 0.17 0.00 73 1005.0
20200602232852 76 267 6.0 11.0 0.00 0.17 0.00 73 1005.0
20200602232753 76 267 6.0 11.0 0.00 0.17 0.00 73 1005.0
20200602232652 76 267 6.0 11.0 0.00 0.17 0.00 73 1005.0
20200602232552 76 268 6.0 11.0 0.00 0.17 0.00 73 1005.0
20200602232453 76 268 5.0 11.0 0.00 0.17 0.00 73 1005.1
20200602232352 76 268 5.0 11.0 0.00 0.17 0.00 73 1005.0
20200602232253 76 267 5.0 11.0 0.00 0.17 0.00 73 1005.1
20200602232152 76 265 5.0 11.0 0.00 0.17 0.00 73 1005.1
20200602232052 76 264 5.0 11.0 0.00 0.17 0.00 72 1005.1
20200602231953 76 262 5.0 11.0 0.00 0.17 0.00 72 1005.1
20200602231853 76 262 5.0 9.0 0.00 0.17 0.00 73 1005.1
20200602231752 76 259 5.0 9.0 0.00 0.17 0.00 73 1005.1
20200602231653 76 259 5.0 10.0 0.00 0.17 0.00 73 1005.1
20200602231552 76 259 6.0 11.0 0.00 0.17 0.00 73 1005.1
20200602231453 76 258 6.0 11.0 0.00 0.17 0.00 73 1005.1
20200602231352 76 258 6.0 11.0 0.00 0.17 0.00 73 1005.1
20200602231253 76 257 7.0 11.0 0.00 0.17 0.00 73 1005.2
20200602231153 76 258 7.0 14.0 0.00 0.17 0.00 73 1005.2
20200602231052 76 259 8.0 14.0 0.00 0.17 0.00 73 1005.3
20200602230953 76 259 8.0 14.0 0.00 0.17 0.00 73 1005.3
20200602230852 76 259 8.0 14.0 0.00 0.17 0.00 72 1005.2
20200602230753 76 261 8.0 14.0 0.00 0.17 0.00 72 1005.2
20200602230652 76 262 9.0 16.0 0.00 0.17 0.00 72 1005.2
20200602230553 76 262 9.0 16.0 0.00 0.17 0.00 72 1005.1
20200602230453 76 262 9.0 16.0 0.00 0.17 0.00 72 1005.2
20200602230353 76 261 10.0 16.0 0.00 0.17 0.00 72 1005.2
20200602230252 76 261 10.0 16.0 0.00 0.17 0.00 73 1005.3
20200602230153 76 262 10.0 16.0 0.00 0.17 0.00 72 1005.2
20200602230052 77 262 10.0 16.0 0.00 0.17 0.00 72 1005.3
20200602225956 77 262 10.0 16.0 0.00 0.17 0.00 72 1005.2
20200602225852 77 263 10.0 16.0 0.00 0.17 0.00 72 1005.3
20200602225753 77 262 10.0 16.0 0.00 0.17 0.00 72 1005.3
20200602225652 77 260 10.0 16.0 0.00 0.17 0.00 72 1005.2
20200602225553 77 259 10.0 16.0 0.00 0.17 0.00 72 1005.3
20200602225453 77 260 10.0 16.0 0.00 0.17 0.00 72 1005.2
20200602225353 77 261 10.0 16.0 0.00 0.17 0.00 72 1005.2
20200602225252 77 260 10.0 16.0 0.00 0.17 0.00 72 1005.2
20200602225153 77 259 10.0 16.0 0.00 0.17 0.00 72 1005.2
20200602225053 77 257 9.0 16.0 0.00 0.17 0.00 72 1005.2
20200602224953 77 255 9.0 15.0 0.00 0.17 0.00 72 1005.1
20200602224853 77 254 9.0 15.0 0.00 0.17 0.00 72 1005.1
20200602224752 77 254 9.0 15.0 0.00 0.17 0.00 72 1005.2
20200602224653 77 254 9.0 15.0 0.00 0.17 0.00 72 1005.1
20200602224553 77 254 9.0 15.0 0.00 0.17 0.00 72 1005.0
20200602224453 77 252 8.0 15.0 0.00 0.17 0.00 72 1005.0
20200602224352 77 251 8.0 15.0 0.00 0.17 0.00 72 1005.0
20200602224252 77 251 8.0 13.0 0.00 0.17 0.00 72 1005.0
20200602224153 77 250 8.0 13.0 0.00 0.17 0.00 72 1005.0
20200602224052 77 251 8.0 13.0 0.00 0.17 0.00 71 1005.0
20200602223953 77 251 8.0 13.0 0.00 0.17 0.00 72 1005.0
20200602223853 77 250 8.0 13.0 0.00 0.17 0.00 72 1004.9
20200602223753 77 249 9.0 13.0 0.00 0.17 0.00 72 1004.9
20200602223652 77 249 9.0 13.0 0.00 0.17 0.00 71 1004.9
20200602223553 77 250 9.0 13.0 0.00 0.17 0.00 71 1004.9
20200602223453 77 253 9.0 13.0 0.00 0.17 0.00 71 1004.9
20200602223353 77 255 9.0 13.0 0.00 0.17 0.00 71 1004.9
20200602223253 77 256 9.0 13.0 0.00 0.17 0.00 71 1004.9
20200602223152 77 258 9.0 13.0 0.00 0.17 0.00 72 1004.9
20200602223053 77 259 9.0 13.0 0.00 0.17 0.00 71 1004.9
20200602222956 77 260 9.0 13.0 0.00 0.17 0.00 71 1004.9
20200602222852 77 261 9.0 13.0 0.00 0.17 0.00 71 1004.8
20200602222753 77 263 9.0 13.0 0.00 0.17 0.00 72 1004.8
20200602222653 77 265 10.0 17.0 0.00 0.17 0.00 71 1004.8
20200602222552 77 265 10.0 19.0 0.00 0.17 0.00 71 1004.8
20200602222453 77 264 11.0 19.0 0.00 0.17 0.00 72 1004.9
20200602222352 77 263 10.0 19.0 0.00 0.17 0.00 71 1004.9
20200602222252 77 264 11.0 19.0 0.00 0.17 0.00 71 1004.8
20200602222153 77 262 11.0 19.0 0.00 0.17 0.00 72 1004.9
20200602222052 77 262 11.0 19.0 0.00 0.17 0.00 72 1004.9
20200602221953 77 261 11.0 19.0 0.00 0.17 0.00 71 1004.9
20200602221852 77 260 11.0 19.0 0.00 0.17 0.00 71 1005.0
20200602221753 77 260 11.0 19.0 0.00 0.17 0.00 71 1005.0
20200602221652 77 259 10.0 19.0 0.00 0.17 0.00 71 1005.0
20200602221552 77 258 10.0 16.0 0.00 0.17 0.00 71 1005.0
20200602221453 77 257 10.0 16.0 0.00 0.17 0.00 71 1004.9
20200602221352 77 256 10.0 16.0 0.00 0.17 0.00 70 1004.9
20200602221253 78 256 9.0 16.0 0.00 0.17 0.00 70 1004.9
20200602221152 78 258 9.0 16.0 0.00 0.17 0.00 71 1004.9
20200602221052 78 259 9.0 16.0 0.00 0.17 0.00 70 1004.9
20200602220953 78 260 9.0 16.0 0.00 0.17 0.00 70 1004.8
20200602220852 78 261 9.0 16.0 0.00 0.17 0.00 70 1004.8
20200602220752 78 261 9.0 16.0 0.00 0.17 0.00 70 1004.8
20200602220653 78 263 9.0 16.0 0.00 0.17 0.00 70 1004.8
20200602220552 78 265 9.0 16.0 0.00 0.17 0.00 70 1004.9
20200602220452 78 266 9.0 16.0 0.00 0.17 0.00 71 1004.9
20200602220353 78 266 9.0 16.0 0.00 0.17 0.00 71 1004.9
20200602220252 78 266 9.0 16.0 0.00 0.17 0.00 70 1004.9
20200602220152 78 267 9.0 16.0 0.00 0.17 0.00 69 1004.9
20200602220053 78 267 9.0 16.0 0.00 0.17 0.00 70 1004.9
20200602215955 78 269 9.0 16.0 0.00 0.17 0.00 70 1004.8
20200602215853 78 269 9.0 16.0 0.00 0.17 0.00 70 1004.8
20200602215753 78 269 9.0 16.0 0.00 0.17 0.00 69 1004.9
20200602215652 78 267 9.0 16.0 0.00 0.17 0.00 69 1004.9
20200602215552 78 266 10.0 16.0 0.00 0.17 0.00 69 1004.9
20200602215453 78 265 10.0 17.0 0.00 0.17 0.00 69 1004.9
20200602215352 78 265 11.0 17.0 0.00 0.17 0.00 68 1004.9
20200602215252 78 264 11.0 17.0 0.00 0.17 0.00 69 1004.9
20200602215153 79 264 11.0 19.0 0.00 0.17 0.00 68 1004.9
20200602215052 79 263 12.0 19.0 0.00 0.17 0.00 69 1004.9
20200602214952 79 262 12.0 19.0 0.00 0.17 0.00 70 1004.9
20200602214852 78 262 13.0 19.0 0.00 0.17 0.00 69 1004.9
20200602214752 79 262 13.0 19.0 0.00 0.17 0.00 69 1004.8
20200602214652 78 262 13.0 21.0 0.00 0.17 0.00 69 1004.9
20200602214552 78 262 13.0 21.0 0.00 0.17 0.00 69 1004.8
20200602214453 78 261 14.0 21.0 0.00 0.17 0.00 69 1004.8
20200602214352 78 262 14.0 21.0 0.00 0.17 0.00 68 1004.8
20200602214252 78 261 14.0 21.0 0.00 0.17 0.00 69 1004.8
20200602214153 79 260 14.0 21.0 0.00 0.17 0.00 69 1004.8
20200602214052 78 260 14.0 21.0 0.00 0.17 0.00 70 1004.8
20200602213952 78 261 14.0 21.0 0.00 0.17 0.00 69 1004.8
20200602213852 78 261 14.0 21.0 0.00 0.17 0.00 69 1004.8
20200602213753 78 262 14.0 21.0 0.00 0.17 0.00 69 1004.8
20200602213652 78 263 13.0 19.0 0.00 0.17 0.00 69 1004.8
20200602213552 78 264 13.0 19.0 0.00 0.17 0.00 69 1004.8
20200602213453 78 266 13.0 20.0 0.00 0.17 0.00 69 1004.8
20200602213353 78 267 13.0 20.0 0.00 0.17 0.00 69 1004.9
20200602213252 78 269 13.0 22.0 0.00 0.17 0.00 69 1004.8
20200602213152 78 270 13.0 22.0 0.00 0.17 0.00 68 1004.8
20200602213053 78 270 13.0 22.0 0.00 0.17 0.00 68 1004.9
20200602212956 78 269 12.0 22.0 0.00 0.17 0.00 68 1004.9
20200602212852 79 268 12.0 22.0 0.00 0.17 0.00 68 1004.9
20200602212752 79 268 12.0 22.0 0.00 0.17 0.00 67 1004.9
20200602212652 79 264 12.0 22.0 0.00 0.17 0.00 67 1004.9
20200602212552 79 262 12.0 22.0 0.00 0.17 0.00 67 1004.8
20200602212453 79 260 12.0 22.0 0.00 0.17 0.00 67 1004.9
20200602212352 79 259 12.0 22.0 0.00 0.17 0.00 67 1004.9
20200602212252 80 257 11.0 18.0 0.00 0.17 0.00 67 1004.9
20200602212152 80 255 11.0 18.0 0.00 0.17 0.00 67 1004.9
20200602212053 80 255 11.0 18.0 0.00 0.17 0.00 66 1004.8
20200602211953 80 254 12.0 18.0 0.00 0.17 0.00 67 1004.8
20200602211852 80 253 12.0 18.0 0.00 0.17 0.00 67 1004.8
20200602211752 80 253 12.0 18.0 0.00 0.17 0.00 66 1004.8
20200602211653 80 254 12.0 18.0 0.00 0.17 0.00 67 1004.8
20200602211552 80 254 11.0 18.0 0.00 0.17 0.00 67 1004.7
20200602211452 80 254 12.0 18.0 0.00 0.17 0.00 68 1004.8
20200602211353 80 254 11.0 18.0 0.00 0.17 0.00 66 1004.7
20200602211252 80 254 11.0 18.0 0.00 0.17 0.00 66 1004.7
20200602211152 80 256 11.0 18.0 0.00 0.17 0.00 67 1004.7
20200602211053 80 256 11.0 18.0 0.00 0.17 0.00 65 1004.7
20200602210952 80 257 11.0 19.0 0.00 0.17 0.00 67 1004.7
20200602210852 80 257 11.0 19.0 0.00 0.17 0.00 67 1004.7
20200602210753 80 257 11.0 19.0 0.00 0.17 0.00 67 1004.7
20200602210652 80 258 12.0 22.0 0.00 0.17 0.00 68 1004.7
20200602210552 80 258 13.0 22.0 0.00 0.17 0.00 67 1004.7
20200602210453 80 259 12.0 22.0 0.00 0.17 0.00 67 1004.7
20200602210352 79 258 13.0 22.0 0.00 0.17 0.00 67 1004.8
20200602210252 79 257 13.0 22.0 0.00 0.17 0.00 68 1004.8
20200602210152 79 257 13.0 22.0 0.00 0.17 0.00 66 1004.7
20200602210052 79 256 14.0 22.0 0.00 0.17 0.00 66 1004.8
20200602205954 79 257 14.0 22.0 0.00 0.17 0.00 67 1004.8
20200602205853 79 257 14.0 22.0 0.00 0.17 0.00 66 1004.8
20200602205752 80 255 13.0 22.0 0.00 0.17 0.00 66 1004.8
20200602205652 80 255 13.0 20.0 0.00 0.17 0.00 66 1004.8
20200602205552 80 255 13.0 20.0 0.00 0.17 0.00 66 1004.9
20200602205453 80 253 13.0 26.0 0.00 0.17 0.00 65 1004.9
20200602205353 80 255 13.0 26.0 0.00 0.17 0.00 65 1004.9
20200602205252 80 256 13.0 26.0 0.00 0.17 0.00 66 1004.9
20200602205153 80 256 13.0 26.0 0.00 0.17 0.00 65 1004.9
20200602205052 80 256 13.0 26.0 0.00 0.17 0.00 66 1004.8
20200602204953 80 257 13.0 26.0 0.00 0.17 0.00 66 1004.9
20200602204852 80 258 14.0 26.0 0.00 0.17 0.00 67 1004.9
20200602204752 80 259 14.0 26.0 0.00 0.17 0.00 65 1004.8
20200602204653 80 259 15.0 26.0 0.00 0.17 0.00 65 1004.9
20200602204552 80 260 15.0 26.0 0.00 0.17 0.00 66 1004.8
20200602204453 80 261 15.0 29.0 0.00 0.17 0.00 66 1004.8
20200602204352 79 261 15.0 29.0 0.00 0.17 0.00 67 1004.8
20200602204252 79 261 15.0 29.0 0.00 0.17 0.00 66 1004.8
20200602204153 79 260 15.0 29.0 0.00 0.17 0.00 66 1004.8
20200602204052 79 260 15.0 29.0 0.00 0.17 0.00 65 1004.8
20200602203952 79 259 15.0 29.0 0.00 0.17 0.00 65 1004.7
20200602203852 79 258 15.0 29.0 0.00 0.17 0.00 65 1004.8
20200602203752 79 259 15.0 29.0 0.00 0.17 0.00 65 1004.8
20200602203652 79 259 15.0 29.0 0.00 0.17 0.00 66 1004.8
20200602203552 79 258 15.0 29.0 0.00 0.17 0.00 64 1004.8
20200602203452 79 258 15.0 25.0 0.00 0.17 0.00 65 1004.8
20200602203352 79 256 15.0 25.0 0.00 0.17 0.00 66 1004.8
20200602203252 79 256 15.0 25.0 0.00 0.17 0.00 66 1004.8
20200602203153 79 257 15.0 25.0 0.00 0.17 0.00 66 1004.9
20200602203052 79 257 15.0 25.0 0.00 0.17 0.00 65 1004.9
20200602202955 79 257 15.0 25.0 0.00 0.17 0.00 66 1004.9
20200602202853 79 257 14.0 25.0 0.00 0.17 0.00 66 1004.9
20200602202752 79 256 14.0 25.0 0.00 0.17 0.00 65 1004.9
20200602202652 79 256 14.0 25.0 0.00 0.17 0.00 64 1004.8
20200602202552 79 256 13.0 23.0 0.00 0.17 0.00 65 1004.8
20200602202453 80 256 13.0 20.0 0.00 0.17 0.00 65 1004.8
20200602202352 80 256 12.0 20.0 0.00 0.17 0.00 65 1004.8
20200602202252 80 257 12.0 20.0 0.00 0.17 0.00 65 1004.8
20200602202153 80 256 12.0 20.0 0.00 0.17 0.00 65 1004.8
20200602202052 80 256 12.0 17.0 0.00 0.17 0.00 66 1004.8
20200602201952 80 257 12.0 17.0 0.00 0.17 0.00 66 1004.8
20200602201853 80 257 11.0 17.0 0.00 0.17 0.00 66 1004.8
20200602201752 80 257 11.0 17.0 0.00 0.17 0.00 66 1004.8
20200602201652 80 257 11.0 17.0 0.00 0.17 0.00 65 1004.7
20200602201552 80 258 11.0 17.0 0.00 0.17 0.00 66 1004.8
20200602201453 80 258 11.0 17.0 0.00 0.17 0.00 66 1004.8
20200602201352 80 257 11.0 17.0 0.00 0.17 0.00 65 1004.7
20200602201252 80 255 11.0 18.0 0.00 0.17 0.00 66 1004.8
20200602201153 80 256 11.0 18.0 0.00 0.17 0.00 64 1004.7
20200602201052 80 255 11.0 18.0 0.00 0.17 0.00 67 1004.8
20200602200952 80 255 11.0 19.0 0.00 0.17 0.00 67 1004.8
20200602200853 80 256 12.0 19.0 0.00 0.17 0.00 68 1004.9
20200602200752 80 256 12.0 19.0 0.00 0.17 0.00 67 1004.8
20200602200652 79 256 12.0 22.0 0.00 0.17 0.00 67 1004.8
20200602200552 79 255 13.0 22.0 0.00 0.17 0.00 66 1004.8
20200602200452 79 254 14.0 22.0 0.00 0.17 0.00 66 1004.8
20200602200352 79 256 14.0 22.0 0.00 0.17 0.00 67 1004.9
20200602200252 79 256 14.0 22.0 0.00 0.17 0.00 67 1004.9
20200602200152 79 256 14.0 22.0 0.00 0.17 0.00 67 1004.8
20200602200052 79 256 14.0 22.0 0.00 0.17 0.00 65 1004.9
20200602195954 79 256 14.0 22.0 0.00 0.17 0.00 65 1004.8
20200602195852 79 256 13.0 22.0 0.00 0.17 0.00 65 1004.9
20200602195752 79 256 13.0 22.0 0.00 0.17 0.00 64 1004.9
20200602195652 79 256 13.0 22.0 0.00 0.17 0.00 64 1004.9
20200602195552 79 257 12.0 22.0 0.00 0.17 0.00 65 1004.9
20200602195452 79 257 11.0 18.0 0.00 0.17 0.00 66 1005.0
20200602195352 79 255 11.0 18.0 0.00 0.17 0.00 67 1005.0
20200602195253 79 256 12.0 19.0 0.00 0.17 0.00 67 1005.0
20200602195152 79 257 12.0 19.0 0.00 0.17 0.00 66 1005.0
20200602195052 79 257 12.0 19.0 0.00 0.17 0.00 65 1005.0
20200602194953 79 256 11.0 19.0 0.00 0.17 0.00 68 1005.0
20200602194852 79 255 11.0 19.0 0.00 0.17 0.00 67 1005.0
20200602194752 79 253 12.0 19.0 0.00 0.17 0.00 67 1005.0
20200602194652 79 252 12.0 19.0 0.00 0.17 0.00 67 1004.9
20200602194552 79 253 12.0 19.0 0.00 0.17 0.00 67 1005.0
20200602194452 79 254 12.0 19.0 0.00 0.17 0.00 66 1004.9
20200602194352 79 254 12.0 19.0 0.00 0.17 0.00 66 1004.9
20200602194253 79 254 12.0 19.0 0.00 0.17 0.00 67 1005.0
20200602194152 79 254 11.0 19.0 0.00 0.17 0.00 66 1005.0
20200602194052 79 254 11.0 19.0 0.00 0.17 0.00 67 1005.0
20200602193952 79 254 11.0 19.0 0.00 0.17 0.00 65 1004.9
20200602193852 79 254 11.0 19.0 0.00 0.17 0.00 66 1004.9
20200602193752 80 256 10.0 17.0 0.00 0.17 0.00 66 1005.1
20200602193652 80 256 9.0 17.0 0.00 0.17 0.00 64 1005.0
20200602193552 80 255 9.0 13.0 0.00 0.17 0.00 67 1005.1
20200602193452 80 256 9.0 15.0 0.00 0.17 0.00 68 1005.0
20200602193352 80 256 9.0 15.0 0.00 0.17 0.00 68 1005.0
20200602193252 80 257 9.0 15.0 0.00 0.17 0.00 68 1005.0
20200602193152 80 256 9.0 15.0 0.00 0.17 0.00 68 1004.9
20200602193052 80 257 9.0 15.0 0.00 0.17 0.00 67 1004.9
20200602192954 79 257 9.0 15.0 0.00 0.17 0.00 69 1004.9
20200602192852 79 257 8.0 15.0 0.00 0.17 0.00 68 1004.9
20200602192753 79 256 9.0 16.0 0.00 0.17 0.00 66 1004.8
20200602192652 79 256 9.0 16.0 0.00 0.17 0.00 66 1004.8
20200602192552 79 255 9.0 16.0 0.00 0.17 0.00 66 1004.8
20200602192453 79 254 9.0 18.0 0.00 0.17 0.00 67 1004.8
20200602192352 79 254 9.0 18.0 0.00 0.17 0.00 69 1004.9
20200602192252 79 252 10.0 18.0 0.00 0.17 0.00 69 1004.9
20200602192152 79 252 10.0 21.0 0.00 0.17 0.00 68 1004.8
20200602192052 79 251 11.0 21.0 0.00 0.17 0.00 68 1004.9
20200602191952 79 251 12.0 21.0 0.00 0.17 0.00 68 1004.9
20200602191852 78 252 13.0 21.0 0.00 0.17 0.00 68 1004.9
20200602191752 78 252 13.0 21.0 0.00 0.17 0.00 68 1005.0
20200602191652 78 253 14.0 21.0 0.00 0.17 0.00 67 1005.0
20200602191552 78 253 14.0 21.0 0.00 0.17 0.00 68 1004.9
20200602191452 78 254 14.0 21.0 0.00 0.17 0.00 67 1005.0
20200602191352 78 254 14.0 21.0 0.00 0.17 0.00 66 1005.0
20200602191252 79 256 14.0 21.0 0.00 0.17 0.00 67 1005.0
20200602191153 79 256 13.0 21.0 0.00 0.17 0.00 67 1005.0
20200602191052 79 257 13.0 20.0 0.00 0.17 0.00 67 1005.0
20200602190952 79 259 13.0 20.0 0.00 0.17 0.00 67 1005.0
20200602190851 79 259 14.0 20.0 0.00 0.17 0.00 67 1005.0
20200602190752 79 260 14.0 20.0 0.00 0.17 0.00 67 1005.0
20200602190652 79 260 14.0 20.0 0.00 0.17 0.00 68 1005.1
20200602190552 79 259 13.0 20.0 0.00 0.17 0.00 67 1005.1
20200602190452 79 260 13.0 20.0 0.00 0.17 0.00 68 1005.1
20200602190352 79 260 13.0 20.0 0.00 0.17 0.00 68 1005.1
20200602190252 79 259 13.0 20.0 0.00 0.17 0.00 67 1005.0
20200602190152 80 258 12.0 20.0 0.00 0.17 0.00 66 1005.0
20200602190052 80 257 12.0 20.0 0.00 0.17 0.00 66 1005.0
20200602185955 80 256 11.0 20.0 0.00 0.17 0.00 66 1004.9
20200602185853 80 256 10.0 19.0 0.00 0.17 0.00 66 1004.9
20200602185752 80 254 10.0 16.0 0.00 0.17 0.00 67 1005.0
20200602185652 80 254 10.0 16.0 0.00 0.17 0.00 67 1005.0
20200602185552 81 255 10.0 17.0 0.00 0.17 0.00 66 1005.0
20200602185452 81 254 10.0 17.0 0.00 0.17 0.00 67 1005.0
20200602185352 81 255 10.0 17.0 0.00 0.17 0.00 65 1005.0
20200602185252 81 255 10.0 17.0 0.00 0.17 0.00 65 1004.9
20200602185152 81 256 10.0 17.0 0.00 0.17 0.00 66 1005.0
20200602185052 81 257 10.0 17.0 0.00 0.17 0.00 66 1005.0
20200602184953 81 258 11.0 17.0 0.00 0.17 0.00 65 1005.0
20200602184852 81 260 11.0 17.0 0.00 0.17 0.00 66 1005.0
20200602184752 81 260 12.0 18.0 0.00 0.17 0.00 66 1004.9
20200602184652 81 261 12.0 19.0 0.00 0.17 0.00 66 1004.9
20200602184552 81 261 11.0 19.0 0.00 0.17 0.00 66 1005.0
20200602184454 81 261 11.0 19.0 0.00 0.17 0.00 67 1005.0
20200602184352 81 260 11.0 19.0 0.00 0.17 0.00 66 1005.0
20200602184252 81 260 11.0 21.0 0.00 0.17 0.00 66 1004.9
20200602184152 81 259 11.0 21.0 0.00 0.17 0.00 66 1004.9
20200602184052 81 259 10.0 21.0 0.00 0.17 0.00 65 1005.0
20200602183953 81 258 10.0 21.0 0.00 0.17 0.00 65 1005.0
20200602183853 82 257 9.0 21.0 0.00 0.17 0.00 65 1004.9
20200602183752 82 256 9.0 21.0 0.00 0.17 0.00 66 1005.0
20200602183652 82 254 9.0 21.0 0.00 0.17 0.00 66 1005.0
20200602183552 82 253 9.0 21.0 0.00 0.17 0.00 65 1005.0
20200602183453 82 253 9.0 21.0 0.00 0.17 0.00 65 1005.0
20200602183351 82 253 9.0 21.0 0.00 0.17 0.00 64 1005.0
20200602183252 82 253 10.0 16.0 0.00 0.17 0.00 66 1005.0
20200602183153 81 254 10.0 16.0 0.00 0.17 0.00 67 1005.0
20200602183052 81 253 10.0 16.0 0.00 0.17 0.00 66 1005.0
20200602182955 81 253 10.0 16.0 0.00 0.17 0.00 67 1004.9
20200602182852 81 252 10.0 16.0 0.00 0.17 0.00 65 1004.9
20200602182751 81 252 10.0 16.0 0.00 0.17 0.00 65 1004.9
20200602182652 81 251 9.0 16.0 0.00 0.17 0.00 65 1004.9
20200602182552 81 251 9.0 16.0 0.00 0.17 0.00 65 1004.8
20200602182453 81 252 9.0 16.0 0.00 0.17 0.00 64 1004.8
20200602182352 81 253 9.0 18.0 0.00 0.17 0.00 66 1004.9
20200602182252 81 252 8.0 18.0 0.00 0.17 0.00 65 1004.9
20200602182152 81 251 8.0 18.0 0.00 0.17 0.00 66 1004.9
20200602182052 81 251 8.0 18.0 0.00 0.17 0.00 66 1004.8
20200602181954 81 251 7.0 18.0 0.00 0.17 0.00 65 1004.8
20200602181852 81 251 7.0 18.0 0.00 0.17 0.00 65 1004.8
20200602181752 81 250 7.0 18.0 0.00 0.17 0.00 66 1004.9
20200602181652 81 250 6.0 18.0 0.00 0.17 0.00 66 1004.8
20200602181552 81 250 6.0 18.0 0.00 0.17 0.00 64 1004.7
20200602181454 81 248 6.0 18.0 0.00 0.17 0.00 64 1004.8
20200602181352 81 246 5.0 12.0 0.00 0.17 0.00 65 1004.8
20200602181252 81 247 5.0 12.0 0.00 0.17 0.00 65 1004.8
20200602181152 81 247 6.0 12.0 0.00 0.17 0.00 65 1004.8
20200602181052 81 249 6.0 13.0 0.00 0.17 0.00 65 1004.9
20200602180954 81 249 6.0 13.0 0.00 0.17 0.00 66 1004.9
20200602180852 81 249 6.0 13.0 0.00 0.17 0.00 67 1004.9
20200602180752 81 250 6.0 13.0 0.00 0.17 0.00 67 1004.9
20200602180652 81 251 6.0 13.0 0.00 0.17 0.00 66 1004.9
20200602180552 81 250 6.0 13.0 0.00 0.17 0.00 65 1004.9
20200602180454 81 250 6.0 13.0 0.00 0.17 0.00 66 1004.8
20200602180352 81 248 6.0 13.0 0.00 0.17 0.00 65 1004.9
20200602180252 81 248 6.0 13.0 0.00 0.17 0.00 66 1004.9
20200602180152 81 246 5.0 13.0 0.00 0.17 0.00 67 1004.9
20200602180052 81 245 5.0 12.0 0.00 0.17 0.00 66 1005.0
20200602175955 81 244 5.0 12.0 0.00 0.17 0.00 66 1004.9
20200602175851 81 245 5.0 12.0 0.00 0.17 0.00 66 1004.9
20200602175752 81 245 5.0 12.0 0.00 0.17 0.00 66 1004.9
20200602175652 81 245 5.0 12.0 0.00 0.17 0.00 65 1004.9
20200602175552 81 245 5.0 12.0 0.00 0.17 0.00 65 1004.9
20200602175453 81 247 5.0 12.0 0.00 0.17 0.00 67 1005.0
20200602175352 80 248 5.0 12.0 0.00 0.17 0.00 67 1005.0
20200602175252 80 250 5.0 12.0 0.00 0.17 0.00 66 1005.0
20200602175152 80 251 5.0 12.0 0.00 0.17 0.00 66 1005.0
20200602175052 80 251 4.0 11.0 0.00 0.17 0.00 66 1005.0
20200602174953 80 253 4.0 11.0 0.00 0.17 0.00 66 1005.0
20200602174851 80 253 4.0 11.0 0.00 0.17 0.00 67 1005.1
20200602174752 80 255 5.0 12.0 0.00 0.17 0.00 68 1005.1
20200602174652 80 256 5.0 12.0 0.00 0.17 0.00 70 1005.1
20200602174552 80 255 6.0 12.0 0.00 0.17 0.00 68 1005.2
20200602174452 80 255 6.0 12.0 0.00 0.17 0.00 68 1005.2
20200602174352 80 256 6.0 12.0 0.00 0.17 0.00 67 1005.2
20200602174252 80 256 6.0 12.0 0.00 0.17 0.00 69 1005.2
20200602174152 80 255 7.0 12.0 0.00 0.17 0.00 68 1005.2
20200602174052 80 254 7.0 12.0 0.00 0.17 0.00 68 1005.2
20200602173953 80 253 7.0 12.0 0.00 0.17 0.00 67 1005.2
20200602173851 80 253 7.0 12.0 0.00 0.17 0.00 67 1005.2
20200602173752 80 252 6.0 12.0 0.00 0.17 0.00 66 1005.2
20200602173652 80 251 5.0 11.0 0.00 0.17 0.00 66 1005.2
20200602173552 80 250 5.0 11.0 0.00 0.17 0.00 67 1005.2
20200602173453 80 249 5.0 10.0 0.00 0.17 0.00 67 1005.2
20200602173352 80 245 4.0 10.0 0.00 0.17 0.00 68 1005.2
20200602173252 80 242 4.0 10.0 0.00 0.17 0.00 66 1005.2
20200602173152 80 241 4.0 10.0 0.00 0.17 0.00 67 1005.3
20200602173052 80 236 3.0 10.0 0.00 0.17 0.00 67 1005.3
20200602172954 80 232 3.0 7.0 0.00 0.17 0.00 68 1005.3
20200602172852 80 233 3.0 7.0 0.00 0.17 0.00 67 1005.3
20200602172753 80 232 2.0 7.0 0.00 0.17 0.00 66 1005.3
20200602172652 80 232 3.0 7.0 0.00 0.17 0.00 65 1005.3
20200602172552 80 233 3.0 7.0 0.00 0.17 0.00 65 1005.2
20200602172452 80 232 3.0 7.0 0.00 0.17 0.00 67 1005.3
20200602172353 80 237 2.0 7.0 0.00 0.17 0.00 67 1005.3
20200602172252 80 239 3.0 9.0 0.00 0.17 0.00 66 1005.4
20200602172152 80 238 3.0 9.0 0.00 0.17 0.00 68 1005.4
20200602172052 80 242 3.0 9.0 0.00 0.17 0.00 67 1005.4
20200602171952 80 244 3.0 9.0 0.00 0.17 0.00 67 1005.3
20200602171852 80 243 3.0 9.0 0.00 0.17 0.00 66 1005.4
20200602171752 80 243 3.0 9.0 0.00 0.17 0.00 66 1005.3
20200602171652 80 239 3.0 9.0 0.00 0.17 0.00 67 1005.4
20200602171552 80 238 3.0 9.0 0.00 0.17 0.00 67 1005.3
20200602171452 80 238 3.0 9.0 0.00 0.17 0.00 66 1005.4
20200602171351 80 233 3.0 9.0 0.00 0.17 0.00 69 1005.4
20200602171252 80 233 3.0 9.0 0.00 0.17 0.00 68 1005.3
20200602171151 80 228 3.0 9.0 0.00 0.17 0.00 68 1005.3
20200602171052 80 221 3.0 8.0 0.00 0.17 0.00 67 1005.4
20200602170952 79 220 3.0 8.0 0.00 0.17 0.00 65 1005.3
20200602170852 79 214 3.0 8.0 0.00 0.17 0.00 68 1005.3
20200602170752 79 211 3.0 8.0 0.00 0.17 0.00 68 1005.3
20200602170652 79 213 3.0 8.0 0.00 0.17 0.00 67 1005.3
20200602170552 79 213 3.0 8.0 0.00 0.17 0.00 67 1005.4
20200602170452 79 215 3.0 8.0 0.00 0.17 0.00 68 1005.4
20200602170352 79 219 3.0 8.0 0.00 0.17 0.00 69 1005.3
20200602170252 79 218 3.0 8.0 0.00 0.17 0.00 69 1005.3
20200602170152 78 220 3.0 8.0 0.00 0.17 0.00 69 1005.3
20200602170051 78 226 3.0 9.0 0.00 0.17 0.00 68 1005.4
20200602165955 78 228 4.0 9.0 0.00 0.17 0.00 69 1005.4
20200602165852 78 233 4.0 9.0 0.00 0.17 0.00 69 1005.4
20200602165752 78 236 4.0 12.0 0.00 0.17 0.00 69 1005.5
20200602165652 78 239 4.0 12.0 0.00 0.17 0.00 69 1005.5
20200602165552 78 242 4.0 12.0 0.00 0.17 0.00 68 1005.5
20200602165452 77 243 5.0 12.0 0.00 0.17 0.00 69 1005.5
20200602165352 77 242 5.0 12.0 0.00 0.17 0.00 69 1005.5
20200602165251 77 246 5.0 12.0 0.00 0.17 0.00 69 1005.5
20200602165152 77 248 5.0 12.0 0.00 0.17 0.00 68 1005.5
20200602165052 77 250 6.0 12.0 0.00 0.17 0.00 69 1005.5
20200602164952 77 251 6.0 13.0 0.00 0.17 0.00 68 1005.5
20200602164852 77 251 7.0 13.0 0.00 0.17 0.00 70 1005.5
20200602164751 77 252 7.0 13.0 0.00 0.17 0.00 70 1005.5
20200602164652 77 252 7.0 13.0 0.00 0.17 0.00 71 1005.5
20200602164551 77 253 7.0 14.0 0.00 0.17 0.00 71 1005.5
20200602164452 77 254 8.0 14.0 0.00 0.17 0.00 70 1005.5
20200602164352 77 254 8.0 14.0 0.00 0.17 0.00 70 1005.5
20200602164252 77 254 9.0 14.0 0.00 0.17 0.00 70 1005.5
20200602164151 77 253 9.0 14.0 0.00 0.17 0.00 70 1005.5
20200602164052 76 253 9.0 14.0 0.00 0.17 0.00 70 1005.5
20200602163952 76 253 9.0 14.0 0.00 0.17 0.00 71 1005.4
20200602163852 76 254 8.0 14.0 0.00 0.17 0.00 71 1005.4
20200602163752 76 253 8.0 14.0 0.00 0.17 0.00 70 1005.4
20200602163651 76 254 8.0 14.0 0.00 0.17 0.00 70 1005.5
20200602163552 76 253 7.0 14.0 0.00 0.17 0.00 71 1005.5
20200602163452 76 252 7.0 14.0 0.00 0.17 0.00 70 1005.5
20200602163352 76 251 6.0 14.0 0.00 0.17 0.00 71 1005.5
20200602163252 76 251 6.0 14.0 0.00 0.17 0.00 70 1005.5
20200602163151 76 251 6.0 14.0 0.00 0.17 0.00 71 1005.4
20200602163051 76 251 5.0 11.0 0.00 0.17 0.00 71 1005.5
20200602162954 76 251 5.0 11.0 0.00 0.17 0.00 71 1005.5
20200602162852 76 250 5.0 11.0 0.00 0.17 0.00 70 1005.5
20200602162751 76 250 5.0 11.0 0.00 0.17 0.00 71 1005.5
20200602162652 76 250 5.0 13.0 0.00 0.17 0.00 70 1005.6
20200602162552 76 252 6.0 13.0 0.00 0.17 0.00 71 1005.5
20200602162452 76 252 7.0 13.0 0.00 0.17 0.00 71 1005.5
20200602162352 76 252 7.0 13.0 0.00 0.17 0.00 70 1005.5
20200602162252 76 253 7.0 14.0 0.00 0.17 0.00 71 1005.5
20200602162151 76 254 7.0 14.0 0.00 0.17 0.00 71 1005.5
20200602162054 75 254 8.0 14.0 0.00 0.17 0.00 72 1005.5
20200602161952 75 253 8.0 14.0 0.00 0.17 0.00 71 1005.6
20200602161852 75 253 8.0 14.0 0.00 0.17 0.00 72 1005.4
20200602161752 75 254 8.0 14.0 0.00 0.17 0.00 72 1005.5
20200602161652 75 254 8.0 14.0 0.00 0.17 0.00 71 1005.5
20200602161551 75 253 8.0 15.0 0.00 0.17 0.00 71 1005.6
20200602161452 75 254 9.0 15.0 0.00 0.17 0.00 71 1005.6
20200602161351 75 254 9.0 15.0 0.00 0.17 0.00 72 1005.6
20200602161252 75 254 9.0 15.0 0.00 0.17 0.00 72 1005.6
20200602161152 75 253 9.0 15.0 0.00 0.17 0.00 72 1005.7
20200602161051 75 254 9.0 16.0 0.00 0.17 0.00 72 1005.7
20200602160952 75 253 9.0 16.0 0.00 0.17 0.00 71 1005.7
20200602160851 75 253 9.0 16.0 0.00 0.17 0.00 72 1005.8
20200602160751 75 252 9.0 16.0 0.00 0.17 0.00 72 1005.8
20200602160652 75 252 8.0 16.0 0.00 0.17 0.00 71 1005.8
20200602160552 75 252 8.0 16.0 0.00 0.17 0.00 71 1005.8
20200602160452 75 252 7.0 16.0 0.00 0.17 0.00 72 1005.7
20200602160351 75 251 7.0 16.0 0.00 0.17 0.00 71 1005.8
20200602160251 75 250 7.0 16.0 0.00 0.17 0.00 71 1005.8
20200602160152 75 251 6.0 16.0 0.00 0.17 0.00 72 1005.8
20200602160052 75 251 6.0 12.0 0.00 0.17 0.00 72 1005.8
20200602155954 75 252 6.0 12.0 0.00 0.17 0.00 72 1005.9
20200602155852 75 253 6.0 12.0 0.00 0.17 0.00 71 1005.9
20200602155752 75 253 7.0 12.0 0.00 0.17 0.00 73 1005.9
20200602155652 74 254 7.0 12.0 0.00 0.17 0.00 73 1005.9
20200602155552 74 253 7.0 12.0 0.00 0.17 0.00 73 1005.9
20200602155451 74 252 7.0 12.0 0.00 0.17 0.00 71 1005.9
20200602155352 74 253 8.0 12.0 0.00 0.17 0.00 72 1005.9
20200602155251 74 252 8.0 12.0 0.00 0.17 0.00 73 1005.9
20200602155152 74 252 8.0 16.0 0.00 0.17 0.00 72 1006.0
20200602155052 74 252 9.0 16.0 0.00 0.17 0.00 73 1006.0
20200602154952 74 252 9.0 16.0 0.00 0.17 0.00 73 1006.0
20200602154852 74 252 8.0 16.0 0.00 0.17 0.00 73 1006.1
20200602154752 74 252 8.0 16.0 0.00 0.17 0.00 72 1006.0
20200602154652 74 251 8.0 16.0 0.00 0.17 0.00 72 1006.1
20200602154552 74 252 8.0 16.0 0.00 0.17 0.00 72 1006.1
20200602154452 74 253 8.0 16.0 0.00 0.17 0.00 72 1006.1
20200602154351 74 253 7.0 16.0 0.00 0.17 0.00 72 1006.0
20200602154252 74 253 7.0 16.0 0.00 0.17 0.00 72 1006.0
20200602154152 74 253 6.0 15.0 0.00 0.17 0.00 72 1006.1
20200602154052 74 252 6.0 12.0 0.00 0.17 0.00 72 1006.1
20200602153952 74 253 6.0 12.0 0.00 0.17 0.00 72 1006.1
20200602153851 74 252 6.0 12.0 0.00 0.17 0.00 72 1006.1
20200602153751 74 252 5.0 12.0 0.00 0.17 0.00 73 1006.1
20200602153652 74 251 5.0 12.0 0.00 0.17 0.00 72 1006.1
20200602153552 74 250 4.0 12.0 0.00 0.17 0.00 72 1006.1
20200602153452 74 249 4.0 12.0 0.00 0.17 0.00 71 1006.1
20200602153352 74 248 4.0 12.0 0.00 0.17 0.00 72 1006.1
20200602153251 74 249 4.0 12.0 0.00 0.17 0.00 72 1006.1
20200602153151 74 248 4.0 11.0 0.00 0.17 0.00 73 1006.2
20200602153051 74 249 4.0 11.0 0.00 0.17 0.00 73 1006.2
20200602152954 74 249 4.0 11.0 0.00 0.17 0.00 73 1006.1
20200602152851 74 247 3.0 10.0 0.00 0.17 0.00 73 1006.2
20200602152751 73 245 3.0 10.0 0.00 0.17 0.00 73 1006.2
20200602152652 73 242 3.0 10.0 0.00 0.17 0.00 73 1006.1
20200602152552 73 243 3.0 10.0 0.00 0.17 0.00 73 1006.1
20200602152452 73 245 3.0 10.0 0.00 0.17 0.00 73 1006.2
20200602152351 73 249 4.0 12.0 0.00 0.17 0.00 73 1006.3
20200602152252 73 250 4.0 12.0 0.00 0.17 0.00 73 1006.2
20200602152152 73 248 4.0 12.0 0.00 0.17 0.00 73 1006.2
20200602152052 73 249 4.0 12.0 0.00 0.17 0.00 72 1006.2
20200602151951 73 247 4.0 12.0 0.00 0.17 0.00 73 1006.2
20200602151852 73 247 4.0 12.0 0.00 0.17 0.00 73 1006.2
20200602151751 73 245 4.0 12.0 0.00 0.17 0.00 74 1006.2
20200602151652 72 246 4.0 12.0 0.00 0.17 0.00 74 1006.2
20200602151551 72 246 4.0 12.0 0.00 0.17 0.00 73 1006.2
20200602151452 72 248 5.0 12.0 0.00 0.17 0.00 73 1006.2
20200602151351 72 246 5.0 11.0 0.00 0.17 0.00 73 1006.2
20200602151251 72 246 5.0 11.0 0.00 0.17 0.00 73 1006.2
20200602151152 72 246 5.0 11.0 0.00 0.17 0.00 74 1006.3
20200602151052 72 248 5.0 11.0 0.00 0.17 0.00 73 1006.2
20200602150952 72 249 5.0 11.0 0.00 0.17 0.00 74 1006.3
20200602150851 72 250 5.0 11.0 0.00 0.17 0.00 73 1006.3
20200602150752 72 253 5.0 11.0 0.00 0.17 0.00 73 1006.3
20200602150651 72 254 4.0 11.0 0.00 0.17 0.00 73 1006.4
20200602150553 72 255 4.0 11.0 0.00 0.17 0.00 73 1006.4
20200602150452 72 254 4.0 11.0 0.00 0.17 0.00 73 1006.4
20200602150352 72 253 3.0 9.0 0.00 0.17 0.00 73 1006.5
20200602150252 72 253 3.0 9.0 0.00 0.17 0.00 73 1006.6
20200602150152 72 256 2.0 9.0 0.00 0.17 0.00 73 1006.6
20200602150051 72 254 2.0 8.0 0.00 0.17 0.00 73 1006.5
20200602145954 72 248 1.0 6.0 0.00 0.17 0.00 73 1006.5
20200602145851 72 247 1.0 6.0 0.00 0.17 0.00 73 1006.4
20200602145752 72 244 1.0 6.0 0.00 0.17 0.00 73 1006.4
20200602145652 72 243 2.0 6.0 0.00 0.17 0.00 73 1006.4
20200602145552 72 241 2.0 6.0 0.00 0.17 0.00 73 1006.4
20200602145451 71 238 2.0 6.0 0.00 0.17 0.00 73 1006.5
20200602145352 71 234 1.0 5.0 0.00 0.17 0.00 74 1006.5
20200602145251 71 226 2.0 5.0 0.00 0.17 0.00 74 1006.5
20200602145151 71 224 2.0 6.0 0.00 0.17 0.00 74 1006.5
20200602145053 71 221 2.0 6.0 0.00 0.17 0.00 74 1006.4
20200602144952 71 226 2.0 7.0 0.00 0.17 0.00 74 1006.4
20200602144851 70 224 2.0 7.0 0.00 0.17 0.00 74 1006.4
20200602144752 70 222 2.0 7.0 0.00 0.17 0.00 74 1006.4
20200602144652 70 219 2.0 7.0 0.00 0.17 0.00 74 1006.4
20200602144551 70 221 2.0 7.0 0.00 0.17 0.00 74 1006.4
20200602144452 70 219 2.0 7.0 0.00 0.17 0.00 74 1006.4
20200602144351 70 220 2.0 7.0 0.00 0.17 0.00 74 1006.4
20200602144251 69 222 2.0 7.0 0.00 0.17 0.00 74 1006.4
20200602144152 69 224 2.0 7.0 0.00 0.17 0.00 74 1006.4
20200602144051 69 224 2.0 7.0 0.00 0.17 0.00 74 1006.4
20200602143952 69 221 2.0 7.0 0.00 0.17 0.00 74 1006.5
20200602143851 69 222 2.0 7.0 0.00 0.17 0.00 74 1006.6
20200602143752 69 223 2.0 7.0 0.00 0.17 0.00 74 1006.6
20200602143652 69 227 1.0 7.0 0.00 0.17 0.00 74 1006.7
20200602143551 69 223 1.0 5.0 0.00 0.17 0.00 74 1006.7
20200602143452 68 225 1.0 5.0 0.00 0.17 0.00 74 1006.7
20200602143352 68 220 1.0 5.0 0.00 0.17 0.00 74 1006.8
20200602143251 68 227 1.0 3.0 0.00 0.17 0.00 74 1006.7
20200602143151 68 233 1.0 3.0 0.00 0.17 0.00 74 1006.8
20200602143052 68 238 1.0 3.0 0.00 0.17 0.00 74 1006.8
20200602142956 68 239 1.0 3.0 0.00 0.17 0.00 74 1006.9
20200602142856 68 245 1.0 4.0 0.00 0.17 0.00 74 1006.9
20200602142752 68 243 1.0 4.0 0.00 0.17 0.00 74 1006.9
20200602142651 68 241 1.0 4.0 0.00 0.17 0.00 74 1006.9
20200602142552 68 243 1.0 4.0 0.00 0.17 0.00 74 1006.8
20200602142452 68 244 1.0 4.0 0.00 0.17 0.00 74 1006.8
20200602142351 68 244 1.0 4.0 0.00 0.17 0.00 74 1006.7
20200602142252 68 244 1.0 4.0 0.00 0.17 0.00 75 1006.6
20200602142152 67 241 1.0 4.0 0.00 0.17 0.00 75 1006.7
20200602142051 67 238 1.0 4.0 0.00 0.17 0.00 75 1006.8
20200602141952 67 236 1.0 4.0 0.00 0.17 0.00 75 1006.9
20200602141852 67 231 1.0 3.0 0.00 0.17 0.00 75 1006.9
20200602141751 67 233 1.0 3.0 0.00 0.17 0.00 75 1006.8
20200602141652 67 234 1.0 3.0 0.00 0.17 0.00 75 1006.8
20200602141552 67 233 1.0 3.0 0.00 0.17 0.00 75 1006.8
20200602141452 67 234 1.0 3.0 0.00 0.17 0.00 75 1006.8
20200602141352 67 234 1.0 3.0 0.00 0.17 0.00 75 1006.8
20200602141252 67 234 1.0 3.0 0.00 0.17 0.00 75 1006.8
20200602141151 68 234 1.0 3.0 0.00 0.17 0.00 75 1006.9
20200602141051 68 234 1.0 3.0 0.00 0.17 0.00 75 1007.0
20200602140952 68 234 1.0 3.0 0.00 0.17 0.00 75 1007.0
20200602140851 68 237 1.0 3.0 0.00 0.17 0.00 75 1006.9
20200602140751 68 240 1.0 2.0 0.00 0.17 0.00 75 1006.9
20200602140652 68 240 1.0 2.0 0.00 0.17 0.00 75 1006.8
20200602140552 68 243 1.0 2.0 0.00 0.17 0.00 75 1006.7
20200602140452 68 246 0.0 2.0 0.00 0.17 0.00 75 1006.8
20200602140351 68 248 0.0 2.0 0.00 0.17 0.00 75 1006.8
20200602140252 68 250 0.0 2.0 0.00 0.17 0.00 75 1006.9
20200602140152 68 253 0.0 2.0 0.00 0.17 0.00 75 1006.9
20200602140051 68 255 0.0 2.0 0.00 0.17 0.00 75 1006.9
20200602135954 68 261 0.0 2.0 0.00 0.17 0.00 75 1007.0
20200602135851 68 261 0.0 2.0 0.00 0.17 0.00 75 1007.0
20200602135751 68 261 0.0 2.0 0.00 0.17 0.00 75 1007.0
20200602135652 68 261 0.0 2.0 0.00 0.17 0.00 75 1007.0
20200602135551 68 261 0.0 2.0 0.00 0.17 0.00 75 1007.1
20200602135451 68 261 0.0 2.0 0.00 0.17 0.00 75 1007.1
20200602135352 68 261 0.0 2.0 0.00 0.17 0.00 75 1007.1
20200602135252 68 261 0.0 3.0 0.00 0.17 0.00 75 1007.1
20200602135151 68 261 0.0 3.0 0.00 0.17 0.00 75 1007.1
20200602135052 68 261 1.0 4.0 0.00 0.17 0.00 75 1007.1
20200602134952 68 261 1.0 7.0 0.00 0.17 0.00 75 1007.2
20200602134851 68 260 2.0 7.0 0.00 0.17 0.00 75 1007.1
20200602134752 68 260 2.0 7.0 0.00 0.17 0.00 75 1007.2
20200602134652 68 260 2.0 7.0 0.00 0.17 0.00 75 1007.2
20200602134551 68 259 3.0 7.0 0.00 0.17 0.00 75 1007.2
20200602134452 68 259 3.0 7.0 0.00 0.17 0.00 75 1007.3
20200602134352 68 259 3.0 7.0 0.00 0.17 0.00 75 1007.2
20200602134251 68 259 3.0 7.0 0.00 0.17 0.00 75 1007.3
20200602134151 68 260 3.0 7.0 0.00 0.17 0.00 75 1007.3
20200602134052 68 261 3.0 7.0 0.00 0.17 0.00 75 1007.2
20200602133952 68 259 3.0 7.0 0.00 0.17 0.00 75 1007.3
20200602133852 68 260 3.0 6.0 0.00 0.17 0.00 75 1007.3
20200602133752 68 260 3.0 7.0 0.00 0.17 0.00 75 1007.3
20200602133651 68 261 3.0 7.0 0.00 0.17 0.00 75 1007.3
20200602133551 68 259 3.0 7.0 0.00 0.17 0.00 75 1007.3
20200602133452 68 258 4.0 9.0 0.00 0.17 0.00 75 1007.3
20200602133351 68 257 4.0 9.0 0.00 0.17 0.00 75 1007.3
20200602133252 68 256 4.0 9.0 0.00 0.17 0.00 75 1007.3
20200602133152 68 257 4.0 9.0 0.00 0.17 0.00 75 1007.3
20200602133051 68 255 4.0 9.0 0.00 0.17 0.00 75 1007.4
20200602132955 68 256 4.0 9.0 0.00 0.17 0.00 74 1007.3
20200602132852 68 255 4.0 9.0 0.00 0.17 0.00 74 1007.3
20200602132751 68 254 4.0 9.0 0.00 0.17 0.00 74 1007.3
20200602132651 68 250 4.0 10.0 0.00 0.17 0.00 74 1007.3
20200602132552 68 252 4.0 10.0 0.00 0.17 0.00 74 1007.3
20200602132451 68 252 4.0 10.0 0.00 0.17 0.00 74 1007.2
20200602132352 68 251 4.0 10.0 0.00 0.17 0.00 74 1007.3
20200602132252 68 251 4.0 10.0 0.00 0.17 0.00 74 1007.3
20200602132151 68 250 4.0 11.0 0.00 0.17 0.00 74 1007.3
20200602132051 68 251 4.0 11.0 0.00 0.17 0.00 74 1007.3
20200602131952 69 251 5.0 11.0 0.00 0.17 0.00 74 1007.4
20200602131851 69 251 5.0 11.0 0.00 0.17 0.00 74 1007.4
20200602131752 69 250 4.0 11.0 0.00 0.17 0.00 73 1007.4
20200602131652 69 251 4.0 11.0 0.00 0.17 0.00 74 1007.4
20200602131551 69 252 4.0 11.0 0.00 0.17 0.00 73 1007.4
20200602131452 69 251 3.0 11.0 0.00 0.17 0.00 73 1007.4
20200602131351 69 251 3.0 11.0 0.00 0.17 0.00 73 1007.3
20200602131252 69 251 3.0 11.0 0.00 0.17 0.00 73 1007.3
20200602131152 69 249 2.0 7.0 0.00 0.17 0.00 74 1007.2
20200602131052 69 245 2.0 6.0 0.00 0.17 0.00 73 1007.1
20200602130952 69 240 1.0 4.0 0.00 0.17 0.00 74 1007.1
20200602130851 69 240 1.0 4.0 0.00 0.17 0.00 74 1007.1
20200602130751 69 244 1.0 4.0 0.00 0.17 0.00 73 1007.0
20200602130652 69 244 1.0 4.0 0.00 0.17 0.00 73 1007.0
20200602130551 69 238 1.0 4.0 0.00 0.17 0.00 73 1006.9
20200602130451 69 237 1.0 4.0 0.00 0.17 0.00 73 1006.9
20200602130352 69 237 1.0 4.0 0.00 0.17 0.00 73 1006.9
20200602130251 69 237 1.0 4.0 0.00 0.17 0.00 74 1006.8
20200602130151 69 237 1.0 4.0 0.00 0.17 0.00 74 1006.8
20200602130052 69 238 1.0 4.0 0.00 0.17 0.00 74 1006.9
20200602125956 69 235 1.0 4.0 0.00 0.17 0.00 73 1006.8
20200602125852 69 232 1.0 4.0 0.00 0.17 0.00 73 1006.8
20200602125752 69 229 1.0 4.0 0.00 0.17 0.00 73 1006.8
20200602125652 69 228 1.0 4.0 0.00 0.17 0.00 73 1006.9
20200602125551 69 226 1.0 4.0 0.00 0.17 0.00 73 1006.9
20200602125452 69 225 1.0 4.0 0.00 0.17 0.00 73 1006.8
20200602125352 69 224 1.0 4.0 0.00 0.17 0.00 73 1006.8
20200602125251 69 224 1.0 4.0 0.00 0.17 0.00 72 1006.8
20200602125151 69 223 1.0 4.0 0.00 0.17 0.00 72 1006.8
20200602125052 69 224 1.0 3.0 0.00 0.17 0.00 72 1006.8
20200602124952 69 225 1.0 3.0 0.00 0.17 0.00 72 1006.8
20200602124851 69 227 1.0 3.0 0.00 0.17 0.00 73 1006.8
20200602124751 68 228 1.0 3.0 0.00 0.17 0.00 73 1006.7
20200602124652 68 231 1.0 3.0 0.00 0.17 0.00 73 1006.7
20200602124551 68 232 1.0 3.0 0.00 0.17 0.00 73 1006.8
20200602124453 68 233 1.0 3.0 0.00 0.17 0.00 74 1006.7
20200602124351 68 234 1.0 3.0 0.00 0.17 0.00 74 1006.7
20200602124251 68 237 0.0 3.0 0.00 0.17 0.00 73 1006.7
20200602124152 68 238 0.0 3.0 0.00 0.17 0.00 73 1006.7
20200602124052 68 238 0.0 3.0 0.00 0.17 0.00 73 1006.8
20200602123951 68 237 0.0 3.0 0.00 0.17 0.00 73 1006.7
20200602123852 67 237 0.0 3.0 0.00 0.17 0.00 74 1006.8
20200602123751 67 237 0.0 3.0 0.00 0.17 0.00 74 1006.7
20200602123652 67 236 0.0 3.0 0.00 0.17 0.00 74 1006.8
20200602123551 67 235 0.0 3.0 0.00 0.17 0.00 74 1006.8
20200602123452 67 235 1.0 3.0 0.00 0.17 0.00 74 1006.8
20200602123351 67 235 1.0 3.0 0.00 0.17 0.00 74 1006.8
20200602123251 67 235 1.0 3.0 0.00 0.17 0.00 74 1006.9
20200602123151 66 234 1.0 3.0 0.00 0.17 0.00 75 1006.8
20200602123054 66 234 1.0 3.0 0.00 0.17 0.00 75 1006.9
20200602123001 66 234 1.0 3.0 0.00 0.17 0.00 75 1007.0
20200602122852 66 234 1.0 3.0 0.00 0.17 0.00 74 1007.0
20200602122752 66 233 1.0 3.0 0.00 0.17 0.00 74 1007.0
20200602122652 66 233 1.0 3.0 0.00 0.17 0.00 74 1007.0
20200602122551 66 233 1.0 3.0 0.00 0.17 0.00 74 1007.1
20200602122453 66 233 1.0 3.0 0.00 0.17 0.00 74 1007.1
20200602122351 66 233 1.0 3.0 0.00 0.17 0.00 74 1007.1
20200602122251 66 232 1.0 3.0 0.00 0.17 0.00 74 1007.1
20200602122153 66 229 0.0 3.0 0.00 0.17 0.00 75 1007.1
20200602122055 65 223 0.0 3.0 0.00 0.17 0.00 75 1007.1
20200602121958 65 221 0.0 3.0 0.00 0.17 0.00 75 1007.1
20200602121858 65 219 0.0 3.0 0.00 0.17 0.00 75 1007.0
20200602121752 65 218 0.0 3.0 0.00 0.17 0.00 75 1007.1
20200602121652 65 216 0.0 3.0 0.00 0.17 0.00 74 1007.1
20200602121552 65 215 0.0 3.0 0.00 0.17 0.00 74 1007.1
20200602121500 65 215 0.0 3.0 0.00 0.17 0.00 74 1007.1
20200602121351 65 213 0.0 3.0 0.00 0.17 0.00 74 1007.1
20200602121252 65 207 0.0 2.0 0.00 0.17 0.00 74 1007.2
20200602121159 65 207 0.0 2.0 0.00 0.17 0.00 74 1007.2
20200602121051 65 207 0.0 2.0 0.00 0.17 0.00 73 1007.2
20200602120954 65 207 0.0 2.0 0.00 0.17 0.00 73 1007.2
20200602120851 65 207 0.0 2.0 0.00 0.17 0.00 73 1007.2
20200602120752 65 207 0.0 2.0 0.00 0.17 0.00 73 1007.3
20200602120651 65 206 0.0 2.0 0.00 0.17 0.00 73 1007.3
20200602120554 65 207 0.0 2.0 0.00 0.17 0.00 73 1007.3
20200602120453 65 213 0.0 2.0 0.00 0.17 0.00 73 1007.2
20200602120352 65 225 0.0 2.0 0.00 0.17 0.00 73 1007.2
20200602120252 65 237 0.0 2.0 0.00 0.17 0.00 73 1007.2
20200602120155 65 244 0.0 2.0 0.00 0.17 0.00 74 1007.2
20200602120103 65 244 0.0 2.0 0.00 0.17 0.00 74 1007.2
20200602115957 65 246 0.0 2.0 0.00 0.17 0.00 74 1007.1
20200602115851 65 246 0.0 2.0 0.00 0.17 0.00 74 1007.1
20200602115751 65 246 0.0 2.0 0.00 0.17 0.00 74 1007.1
20200602115652 65 250 0.0 2.0 0.00 0.17 0.00 74 1007.0
20200602115552 64 250 0.0 2.0 0.00 0.17 0.00 75 1007.0
20200602115452 64 250 0.0 2.0 0.00 0.17 0.00 74 1007.0
20200602115351 64 250 0.0 2.0 0.00 0.17 0.00 74 1007.0
20200602115252 64 251 0.0 2.0 0.00 0.17 0.00 75 1007.1
20200602115151 64 252 0.0 2.0 0.00 0.17 0.00 75 1007.1
20200602115051 63 0 0.0 0.0 0.00 0.17 0.00 74 1007.1
20200602114951 63 0 0.0 0.0 0.00 0.17 0.00 74 1007.1
20200602114851 63 0 0.0 0.0 0.00 0.17 0.00 74 1007.1
20200602114751 63 0 0.0 0.0 0.00 0.17 0.00 74 1007.1
20200602114651 63 0 0.0 0.0 0.00 0.17 0.00 74 1007.2
20200602114551 62 0 0.0 0.0 0.00 0.17 0.00 74 1007.2
20200602114451 62 0 0.0 0.0 0.00 0.17 0.00 74 1007.2
20200602114352 62 0 0.0 0.0 0.00 0.17 0.00 74 1007.2
20200602114251 62 0 0.0 0.0 0.00 0.17 0.00 74 1007.3
20200602114152 62 0 0.0 0.0 0.00 0.17 0.00 73 1007.2
20200602114051 62 0 0.0 0.0 0.00 0.17 0.00 72 1007.2
20200602113951 62 0 0.0 0.0 0.00 0.17 0.00 72 1007.2
20200602113851 61 0 0.0 0.0 0.00 0.17 0.00 71 1007.3
20200602113752 61 0 0.0 0.0 0.00 0.17 0.00 71 1007.2
20200602113651 61 0 0.0 0.0 0.00 0.17 0.00 71 1007.3
20200602113552 61 0 0.0 0.0 0.00 0.17 0.00 71 1007.2
20200602113451 61 0 0.0 0.0 0.00 0.17 0.00 70 1007.2
20200602113351 61 0 0.0 0.0 0.00 0.17 0.00 70 1007.2
20200602113251 61 0 0.0 0.0 0.00 0.17 0.00 70 1007.1
20200602113151 60 0 0.0 0.0 0.00 0.17 0.00 70 1007.1
20200602113051 60 0 0.0 0.0 0.00 0.17 0.00 71 1007.2
20200602112956 60 0 0.0 0.0 0.00 0.17 0.00 71 1007.2
20200602112851 60 0 0.0 0.0 0.00 0.17 0.00 70 1007.2
20200602112751 60 0 0.0 0.0 0.00 0.17 0.00 70 1007.1
20200602112652 59 0 0.0 0.0 0.00 0.17 0.00 70 1007.2
20200602112551 59 0 0.0 0.0 0.00 0.17 0.00 70 1007.2
20200602112452 59 0 0.0 0.0 0.00 0.17 0.00 68 1007.3
20200602112351 59 0 0.0 0.0 0.00 0.17 0.00 66 1007.3
20200602112252 59 0 0.0 0.0 0.00 0.17 0.00 65 1007.1
20200602112151 59 0 0.0 0.0 0.00 0.17 0.00 65 1007.2
20200602112051 59 0 0.0 0.0 0.00 0.17 0.00 65 1007.2
20200602111951 59 0 0.0 0.0 0.00 0.17 0.00 64 1007.3
20200602111852 59 0 0.0 0.0 0.00 0.17 0.00 64 1007.2
20200602111751 59 0 0.0 0.0 0.00 0.17 0.00 63 1007.2
20200602111651 58 0 0.0 0.0 0.00 0.17 0.00 63 1007.2
20200602111552 58 0 0.0 0.0 0.00 0.17 0.00 64 1007.2
20200602111451 58 0 0.0 0.0 0.00 0.17 0.00 64 1007.2
20200602111351 58 0 0.0 0.0 0.00 0.17 0.00 63 1007.2
20200602111251 58 0 0.0 0.0 0.00 0.17 0.00 64 1007.2
20200602111151 57 0 0.0 0.0 0.00 0.17 0.00 64 1007.2
20200602111051 57 0 0.0 0.0 0.00 0.17 0.00 65 1007.2
20200602110952 57 0 0.0 0.0 0.00 0.17 0.00 65 1007.2
20200602110852 57 0 0.0 0.0 0.00 0.17 0.00 64 1007.3
20200602110751 57 0 0.0 0.0 0.00 0.17 0.00 64 1007.2
20200602110651 57 0 0.0 0.0 0.00 0.17 0.00 64 1007.3
20200602110552 57 0 0.0 0.0 0.00 0.17 0.00 64 1007.3
20200602110451 57 0 0.0 0.0 0.00 0.17 0.00 64 1007.3
20200602110351 56 0 0.0 0.0 0.00 0.17 0.00 64 1007.3
20200602110252 56 0 0.0 0.0 0.00 0.17 0.00 64 1007.3
20200602110152 56 0 0.0 0.0 0.00 0.17 0.00 64 1007.2
20200602110051 56 0 0.0 0.0 0.00 0.17 0.00 64 1007.2
20200602105954 56 0 0.0 0.0 0.00 0.17 0.00 65 1007.3
20200602105851 56 0 0.0 0.0 0.00 0.17 0.00 64 1007.3
20200602105752 56 0 0.0 0.0 0.00 0.17 0.00 64 1007.2
20200602105651 56 0 0.0 0.0 0.00 0.17 0.00 65 1007.2
20200602105551 56 0 0.0 0.0 0.00 0.17 0.00 65 1007.2
20200602105452 56 0 0.0 0.0 0.00 0.17 0.00 65 1007.2
20200602105351 56 0 0.0 0.0 0.00 0.17 0.00 65 1007.2
20200602105251 56 0 0.0 0.0 0.00 0.17 0.00 65 1007.1
20200602105152 56 0 0.0 0.0 0.00 0.17 0.00 65 1007.1
20200602105051 56 0 0.0 0.0 0.00 0.17 0.00 65 1007.1
20200602104952 56 0 0.0 0.0 0.00 0.17 0.00 65 1007.1
20200602104852 56 0 0.0 0.0 0.00 0.17 0.00 65 1007.1
20200602104751 56 0 0.0 0.0 0.00 0.17 0.00 65 1007.1
20200602104651 56 0 0.0 0.0 0.00 0.17 0.00 65 1007.1
20200602104552 56 0 0.0 0.0 0.00 0.17 0.00 65 1007.0
20200602104453 56 0 0.0 0.0 0.00 0.17 0.00 65 1007.0
20200602104351 56 0 0.0 0.0 0.00 0.17 0.00 66 1007.0
20200602104251 55 0 0.0 0.0 0.00 0.17 0.00 66 1006.9
20200602104152 55 0 0.0 0.0 0.00 0.17 0.00 66 1006.8
20200602104052 55 0 0.0 0.0 0.00 0.17 0.00 66 1006.9
20200602103951 55 0 0.0 0.0 0.00 0.17 0.00 67 1006.9
20200602103851 55 0 0.0 0.0 0.00 0.17 0.00 67 1006.9
20200602103752 55 0 0.0 0.0 0.00 0.17 0.00 67 1006.9
20200602103652 55 0 0.0 0.0 0.00 0.17 0.00 67 1006.8
20200602103551 55 0 0.0 0.0 0.00 0.17 0.00 67 1006.8
20200602103452 55 0 0.0 0.0 0.00 0.17 0.00 68 1006.8
20200602103351 55 0 0.0 0.0 0.00 0.17 0.00 68 1006.9
20200602103252 55 0 0.0 0.0 0.00 0.17 0.00 68 1006.9
20200602103152 55 0 0.0 0.0 0.00 0.17 0.00 68 1006.9
20200602103051 55 0 0.0 0.0 0.00 0.17 0.00 68 1006.8
20200602102954 55 0 0.0 0.0 0.00 0.17 0.00 68 1006.9
20200602102852 55 0 0.0 0.0 0.00 0.17 0.00 68 1006.9
20200602102752 55 0 0.0 0.0 0.00 0.17 0.00 68 1006.9
20200602102651 55 0 0.0 0.0 0.00 0.17 0.00 68 1006.9
20200602102552 55 0 0.0 0.0 0.00 0.17 0.00 68 1006.9
20200602102453 55 0 0.0 0.0 0.00 0.17 0.00 68 1006.9
20200602102352 55 0 0.0 0.0 0.00 0.17 0.00 67 1006.9
20200602102251 55 0 0.0 0.0 0.00 0.17 0.00 67 1006.9
20200602102152 55 0 0.0 0.0 0.00 0.17 0.00 67 1006.9
20200602102052 55 0 0.0 0.0 0.00 0.17 0.00 67 1006.9
20200602101954 55 0 0.0 0.0 0.00 0.17 0.00 67 1007.0
20200602101852 55 0 0.0 0.0 0.00 0.17 0.00 67 1007.0
20200602101752 55 0 0.0 0.0 0.00 0.17 0.00 66 1007.0
20200602101652 55 0 0.0 0.0 0.00 0.17 0.00 66 1007.1
20200602101552 55 0 0.0 0.0 0.00 0.17 0.00 66 1007.1
20200602101453 56 0 0.0 0.0 0.00 0.17 0.00 66 1007.1
20200602101352 56 0 0.0 0.0 0.00 0.17 0.00 66 1007.1
20200602101252 56 0 0.0 0.0 0.00 0.17 0.00 65 1007.1
20200602101152 56 0 0.0 0.0 0.00 0.17 0.00 65 1007.1
20200602101052 56 0 0.0 0.0 0.00 0.17 0.00 65 1007.2
20200602100953 56 0 0.0 0.0 0.00 0.17 0.00 65 1007.2
20200602100852 56 0 0.0 0.0 0.00 0.17 0.00 65 1007.2
20200602100752 56 0 0.0 0.0 0.00 0.17 0.00 65 1007.2
20200602100652 56 0 0.0 0.0 0.00 0.17 0.00 65 1007.2
20200602100552 56 0 0.0 0.0 0.00 0.17 0.00 65 1007.2
20200602100452 56 0 0.0 0.0 0.00 0.17 0.00 65 1007.3
20200602100352 56 0 0.0 0.0 0.00 0.17 0.00 65 1007.3
20200602100252 56 0 0.0 0.0 0.00 0.17 0.00 65 1007.3
20200602100152 56 0 0.0 0.0 0.00 0.17 0.00 65 1007.3
20200602100052 56 0 0.0 0.0 0.00 0.17 0.00 65 1007.2
20200602095955 56 0 0.0 0.0 0.00 0.17 0.00 65 1007.2
20200602095852 56 0 0.0 0.0 0.00 0.17 0.00 65 1007.2
20200602095752 56 0 0.0 0.0 0.00 0.17 0.00 65 1007.2
20200602095652 56 0 0.0 0.0 0.00 0.17 0.00 65 1007.2
20200602095552 56 0 0.0 0.0 0.00 0.17 0.00 65 1007.3
20200602095453 56 0 0.0 0.0 0.00 0.17 0.00 65 1007.3
20200602095352 56 0 0.0 0.0 0.00 0.17 0.00 65 1007.3
20200602095253 56 0 0.0 0.0 0.00 0.17 0.00 65 1007.4
20200602095152 56 0 0.0 0.0 0.00 0.17 0.00 65 1007.4
20200602095053 56 0 0.0 0.0 0.00 0.17 0.00 65 1007.4
20200602094953 56 0 0.0 0.0 0.00 0.17 0.00 65 1007.4
20200602094853 56 0 0.0 0.0 0.00 0.17 0.00 65 1007.3
20200602094752 56 0 0.0 0.0 0.00 0.17 0.00 65 1007.3
20200602094652 56 0 0.0 0.0 0.00 0.17 0.00 65 1007.3
20200602094552 56 0 0.0 0.0 0.00 0.17 0.00 65 1007.3
20200602094453 56 0 0.0 0.0 0.00 0.17 0.00 66 1007.3
20200602094353 57 0 0.0 0.0 0.00 0.17 0.00 66 1007.3
20200602094253 57 0 0.0 0.0 0.00 0.17 0.00 66 1007.3
20200602094152 57 0 0.0 0.0 0.00 0.17 0.00 67 1007.3
20200602094052 57 0 0.0 0.0 0.00 0.17 0.00 67 1007.3
20200602093953 57 0 0.0 0.0 0.00 0.17 0.00 67 1007.3
20200602093852 57 0 0.0 0.0 0.00 0.17 0.00 67 1007.2
20200602093753 57 0 0.0 0.0 0.00 0.17 0.00 68 1007.2
20200602093653 57 0 0.0 0.0 0.00 0.17 0.00 68 1007.3
20200602093552 57 0 0.0 0.0 0.00 0.17 0.00 68 1007.3
20200602093453 57 0 0.0 0.0 0.00 0.17 0.00 68 1007.3
20200602093353 57 0 0.0 0.0 0.00 0.17 0.00 68 1007.3
20200602093252 57 0 0.0 0.0 0.00 0.17 0.00 68 1007.3
20200602093153 57 0 0.0 0.0 0.00 0.17 0.00 68 1007.3
20200602093053 57 0 0.0 0.0 0.00 0.17 0.00 68 1007.3
20200602092954 57 0 0.0 0.0 0.00 0.17 0.00 68 1007.3
20200602092853 57 0 0.0 0.0 0.00 0.17 0.00 68 1007.3
20200602092752 57 0 0.0 0.0 0.00 0.17 0.00 68 1007.2
20200602092653 57 0 0.0 0.0 0.00 0.17 0.00 68 1007.2
20200602092553 57 0 0.0 0.0 0.00 0.17 0.00 68 1007.2
20200602092453 57 0 0.0 0.0 0.00 0.17 0.00 68 1007.2
20200602092353 57 0 0.0 0.0 0.00 0.17 0.00 68 1007.2
20200602092253 57 0 0.0 0.0 0.00 0.17 0.00 68 1007.2
20200602092153 57 0 0.0 0.0 0.00 0.17 0.00 68 1007.2
20200602092053 57 0 0.0 0.0 0.00 0.17 0.00 69 1007.2
20200602091953 57 0 0.0 0.0 0.00 0.17 0.00 69 1007.2
20200602091853 57 0 0.0 0.0 0.00 0.17 0.00 69 1007.2
20200602091753 57 0 0.0 0.0 0.00 0.17 0.00 69 1007.2
20200602091653 57 0 0.0 0.0 0.00 0.17 0.00 69 1007.2
20200602091553 57 0 0.0 0.0 0.00 0.17 0.00 70 1007.2
20200602091453 58 0 0.0 0.0 0.00 0.17 0.00 71 1007.1
20200602091354 58 0 0.0 0.0 0.00 0.17 0.00 71 1007.2
20200602091253 58 0 0.0 0.0 0.00 0.17 0.00 72 1007.2
20200602091152 58 0 0.0 0.0 0.00 0.17 0.00 72 1007.2
20200602091053 58 0 0.0 0.0 0.00 0.17 0.00 73 1007.2
20200602090953 58 0 0.0 0.0 0.00 0.17 0.00 73 1007.2
20200602090853 58 0 0.0 0.0 0.00 0.17 0.00 74 1007.2
20200602090753 58 0 0.0 0.0 0.00 0.17 0.00 74 1007.2
20200602090653 58 0 0.0 0.0 0.00 0.17 0.00 74 1007.2
20200602090552 58 0 0.0 0.0 0.00 0.17 0.00 74 1007.2
20200602090453 58 0 0.0 0.0 0.00 0.17 0.00 74 1007.3
20200602090353 58 0 0.0 0.0 0.00 0.17 0.00 75 1007.3
20200602090253 58 0 0.0 0.0 0.00 0.17 0.00 75 1007.2
20200602090153 58 0 0.0 0.0 0.00 0.17 0.00 75 1007.2
20200602090052 58 0 0.0 0.0 0.00 0.17 0.00 75 1007.1
20200602085955 58 0 0.0 0.0 0.00 0.17 0.00 75 1007.1
20200602085854 58 0 0.0 0.0 0.00 0.17 0.00 75 1007.1
20200602085753 59 0 0.0 0.0 0.00 0.17 0.00 75 1007.1
20200602085653 59 0 0.0 0.0 0.00 0.17 0.00 76 1007.1
20200602085554 59 0 0.0 0.0 0.00 0.17 0.00 76 1007.1
20200602085453 59 260 0.0 1.0 0.00 0.17 0.00 76 1007.1
20200602085354 59 260 0.0 1.0 0.00 0.17 0.00 76 1007.1
20200602085253 59 260 0.0 3.0 0.00 0.17 0.00 76 1007.1
20200602085153 59 260 0.0 3.0 0.00 0.17 0.00 76 1007.1
20200602085053 59 260 0.0 3.0 0.00 0.17 0.00 76 1007.1
20200602084953 60 260 0.0 3.0 0.00 0.17 0.00 76 1007.1
20200602084853 60 260 0.0 3.0 0.00 0.17 0.00 76 1007.1
20200602084753 60 260 1.0 3.0 0.00 0.17 0.00 75 1007.1
20200602084653 60 260 1.0 3.0 0.00 0.17 0.00 75 1007.1
20200602084553 60 263 1.0 3.0 0.00 0.17 0.00 75 1007.1
20200602084454 60 264 1.0 3.0 0.00 0.17 0.00 75 1007.1
20200602084353 60 265 1.0 3.0 0.00 0.17 0.00 75 1007.2
20200602084254 60 268 1.0 3.0 0.00 0.17 0.00 75 1007.2
20200602084153 60 269 1.0 3.0 0.00 0.17 0.00 75 1007.1
20200602084054 60 270 1.0 3.0 0.00 0.17 0.00 75 1007.1
20200602083953 60 270 1.0 3.0 0.00 0.17 0.00 75 1007.2
20200602083854 60 270 1.0 3.0 0.00 0.17 0.00 76 1007.2
20200602083754 59 272 1.0 3.0 0.00 0.17 0.00 76 1007.2
20200602083654 59 276 1.0 3.0 0.00 0.17 0.00 76 1007.2
20200602083554 59 276 0.0 2.0 0.00 0.17 0.00 75 1007.1
20200602083453 59 276 0.0 2.0 0.00 0.17 0.00 75 1007.1
20200602083354 59 276 0.0 2.0 0.00 0.17 0.00 76 1007.1
20200602083254 59 276 0.0 2.0 0.00 0.17 0.00 76 1007.1
20200602083153 59 275 0.0 2.0 0.00 0.17 0.00 75 1007.1
20200602083053 59 275 0.0 2.0 0.00 0.17 0.00 75 1007.0
20200602082956 59 269 0.0 3.0 0.00 0.17 0.00 75 1007.0
20200602082853 59 268 0.0 3.0 0.00 0.17 0.00 75 1007.0
20200602082754 59 267 0.0 3.0 0.00 0.17 0.00 75 1007.1
20200602082653 59 263 0.0 3.0 0.00 0.17 0.00 75 1007.1
20200602082553 59 253 0.0 3.0 0.00 0.17 0.00 75 1007.1
20200602082454 59 251 0.0 3.0 0.00 0.17 0.00 75 1007.1
20200602082354 59 248 0.0 3.0 0.00 0.17 0.00 75 1007.1
20200602082253 59 242 0.0 3.0 0.00 0.17 0.00 75 1007.1
20200602082154 59 224 0.0 3.0 0.00 0.17 0.00 75 1007.1
20200602082054 59 219 0.0 3.0 0.00 0.17 0.00 75 1007.1
20200602081954 59 209 0.0 2.0 0.00 0.17 0.00 75 1007.1
20200602081854 59 211 0.0 3.0 0.00 0.17 0.00 75 1007.1
20200602081753 59 212 0.0 3.0 0.00 0.17 0.00 75 1007.1
20200602081654 59 213 0.0 3.0 0.00 0.17 0.00 75 1007.1
20200602081554 59 215 0.0 3.0 0.00 0.17 0.00 75 1007.1
20200602081454 59 216 0.0 3.0 0.00 0.17 0.00 75 1007.1
20200602081353 59 216 0.0 3.0 0.00 0.17 0.00 75 1007.1
20200602081254 59 216 0.0 3.0 0.00 0.17 0.00 75 1007.1
20200602081154 59 216 0.0 3.0 0.00 0.17 0.00 75 1007.1
20200602081053 59 216 0.0 3.0 0.00 0.17 0.00 75 1007.1
20200602080954 59 215 0.0 3.0 0.00 0.17 0.00 75 1007.1
20200602080855 59 215 0.0 2.0 0.00 0.17 0.00 75 1007.1
20200602080754 59 215 0.0 2.0 0.00 0.17 0.00 75 1007.1
20200602080654 59 0 0.0 0.0 0.00 0.17 0.00 75 1007.2
20200602080553 59 0 0.0 0.0 0.00 0.17 0.00 75 1007.2
20200602080454 59 0 0.0 0.0 0.00 0.17 0.00 75 1007.2
20200602080354 59 215 0.0 1.0 0.00 0.17 0.00 75 1007.3
20200602080254 59 215 0.0 1.0 0.00 0.17 0.00 75 1007.3
20200602080154 59 223 0.0 1.0 0.00 0.17 0.00 75 1007.3
20200602080054 59 225 0.0 1.0 0.00 0.17 0.00 75 1007.3
20200602075957 59 229 0.0 1.0 0.00 0.17 0.00 75 1007.3
20200602075854 59 230 0.0 1.0 0.00 0.17 0.00 75 1007.3
20200602075753 59 233 0.0 2.0 0.00 0.17 0.00 75 1007.3
20200602075654 59 234 0.0 2.0 0.00 0.17 0.00 75 1007.3
20200602075554 59 234 0.0 2.0 0.00 0.17 0.00 75 1007.3
20200602075455 59 234 0.0 2.0 0.00 0.17 0.00 75 1007.3
20200602075354 59 235 0.0 2.0 0.00 0.17 0.00 75 1007.3
20200602075256 59 236 0.0 2.0 0.00 0.17 0.00 75 1007.3
20200602075154 59 238 0.0 2.0 0.00 0.17 0.00 75 1007.4
20200602075053 59 238 0.0 2.0 0.00 0.17 0.00 75 1007.3
20200602074956 59 238 0.0 2.0 0.00 0.17 0.00 75 1007.3
20200602074856 59 238 0.0 2.0 0.00 0.17 0.00 75 1007.4
20200602074755 59 238 0.0 2.0 0.00 0.17 0.00 75 1007.5
20200602074655 59 238 0.0 2.0 0.00 0.17 0.00 75 1007.5
20200602074556 59 238 0.0 2.0 0.00 0.17 0.00 75 1007.5
20200602074454 59 238 0.0 2.0 0.00 0.17 0.00 75 1007.5
20200602074354 59 238 0.0 2.0 0.00 0.17 0.00 75 1007.5
20200602074254 59 238 0.0 2.0 0.00 0.17 0.00 75 1007.4
20200602074154 59 238 0.0 2.0 0.00 0.17 0.00 75 1007.4
20200602074054 59 238 0.0 2.0 0.00 0.17 0.00 75 1007.5
20200602073955 59 238 0.0 2.0 0.00 0.17 0.00 75 1007.6
20200602073855 59 239 0.0 2.0 0.00 0.17 0.00 75 1007.6
20200602073754 59 238 0.0 2.0 0.00 0.17 0.00 75 1007.7
20200602073654 59 0 0.0 0.0 0.00 0.17 0.00 75 1007.7
20200602073555 59 0 0.0 0.0 0.00 0.17 0.00 75 1007.8
20200602073454 59 0 0.0 0.0 0.00 0.17 0.00 75 1007.8
20200602073355 59 0 0.0 0.0 0.00 0.17 0.00 75 1007.8
20200602073254 59 238 0.0 1.0 0.00 0.17 0.00 75 1007.8
20200602073155 59 238 0.0 1.0 0.00 0.17 0.00 75 1007.8
20200602073054 59 238 0.0 1.0 0.00 0.17 0.00 75 1007.8
20200602072957 59 238 0.0 1.0 0.00 0.17 0.00 75 1007.9
20200602072854 59 238 0.0 1.0 0.00 0.17 0.00 75 1007.9
20200602072754 59 238 0.0 1.0 0.00 0.17 0.00 75 1008.0
20200602072655 59 238 0.0 1.0 0.00 0.17 0.00 75 1007.9
20200602072554 59 238 0.0 1.0 0.00 0.17 0.00 75 1007.9
20200602072455 59 238 0.0 1.0 0.00 0.17 0.00 75 1008.0
20200602072356 59 238 0.0 1.0 0.00 0.17 0.00 75 1008.0
20200602072254 59 0 0.0 0.0 0.00 0.17 0.00 76 1008.0
20200602072155 59 0 0.0 0.0 0.00 0.17 0.00 74 1008.0
20200602072055 59 0 0.0 0.0 0.00 0.17 0.00 74 1008.0
20200602071955 59 0 0.0 0.0 0.00 0.17 0.00 74 1008.0
20200602071854 59 238 0.0 1.0 0.00 0.17 0.00 74 1008.1
20200602071755 59 238 0.0 1.0 0.00 0.17 0.00 74 1008.1
20200602071655 59 238 0.0 1.0 0.00 0.17 0.00 74 1008.1
20200602071554 59 238 0.0 1.0 0.00 0.17 0.00 74 1008.0
20200602071455 59 238 0.0 1.0 0.00 0.17 0.00 74 1008.0
20200602071355 59 238 0.0 1.0 0.00 0.17 0.00 74 1008.1
20200602071254 59 238 0.0 1.0 0.00 0.17 0.00 74 1008.1
20200602071155 59 238 0.0 1.0 0.00 0.17 0.00 74 1008.0
20200602071055 59 238 0.0 1.0 0.00 0.17 0.00 74 1008.1
20200602070954 59 238 0.0 1.0 0.00 0.17 0.00 74 1008.1
20200602070855 59 0 0.0 0.0 0.00 0.17 0.00 74 1008.1
20200602070755 59 0 0.0 0.0 0.00 0.17 0.00 74 1008.1
20200602070654 59 238 0.0 2.0 0.00 0.17 0.00 74 1008.1
20200602070555 59 238 0.0 2.0 0.00 0.17 0.00 74 1008.1
20200602070455 59 225 0.0 2.0 0.00 0.17 0.00 73 1008.1
20200602070355 59 215 0.0 2.0 0.00 0.17 0.00 73 1008.1
20200602070255 59 207 0.0 2.0 0.00 0.17 0.00 73 1008.1
20200602070155 59 200 0.0 3.0 0.00 0.17 0.00 73 1008.2
20200602070100 59 199 1.0 3.0 0.00 0.17 0.00 73 1008.1
20200602065958 59 199 1.0 3.0 0.00 0.17 0.00 73 1008.0
20200602065855 59 198 1.0 4.0 0.00 0.17 0.00 73 1008.0
20200602065755 59 197 1.0 4.0 0.00 0.17 0.00 73 1008.0
20200602065655 59 195 1.0 5.0 0.00 0.17 0.00 73 1008.0
20200602065555 59 194 1.0 5.0 0.00 0.17 0.00 73 1008.0
20200602065455 59 194 1.0 5.0 0.00 0.17 0.00 73 1007.9
20200602065355 58 192 2.0 5.0 0.00 0.17 0.00 72 1007.9
20200602065255 58 192 2.0 5.0 0.00 0.17 0.00 72 1007.9
20200602065155 58 191 2.0 5.0 0.00 0.17 0.00 72 1007.9
20200602065056 58 189 2.0 5.0 0.00 0.17 0.00 72 1007.9
20200602064956 58 188 2.0 5.0 0.00 0.17 0.00 72 1007.9
20200602064855 58 185 2.0 5.0 0.00 0.17 0.00 72 1007.9
20200602064755 58 185 1.0 5.0 0.00 0.17 0.00 71 1007.9
20200602064655 58 182 1.0 6.0 0.00 0.17 0.00 71 1007.9
20200602064555 58 179 1.0 6.0 0.00 0.17 0.00 71 1007.9
20200602064455 58 175 1.0 6.0 0.00 0.17 0.00 71 1007.9
20200602064355 58 177 1.0 6.0 0.00 0.17 0.00 71 1007.9
20200602064255 58 178 1.0 6.0 0.00 0.17 0.00 70 1008.0
20200602064155 58 178 1.0 6.0 0.00 0.17 0.00 70 1008.0
20200602064055 58 183 1.0 6.0 0.00 0.17 0.00 70 1008.0
20200602063955 58 183 1.0 6.0 0.00 0.17 0.00 70 1008.0
20200602063856 58 184 1.0 6.0 0.00 0.17 0.00 70 1008.0
20200602063755 58 182 1.0 6.0 0.00 0.17 0.00 69 1008.1
20200602063655 58 185 1.0 4.0 0.00 0.17 0.00 69 1008.0
20200602063555 58 188 1.0 4.0 0.00 0.17 0.00 69 1008.0
20200602063456 58 189 1.0 4.0 0.00 0.17 0.00 69 1008.0
20200602063355 58 187 1.0 5.0 0.00 0.17 0.00 69 1008.0
20200602063255 58 187 1.0 5.0 0.00 0.17 0.00 69 1008.0
20200602063155 58 187 1.0 5.0 0.00 0.17 0.00 69 1008.1
20200602063057 58 183 1.0 5.0 0.00 0.17 0.00 69 1008.1
20200602062959 58 185 1.0 5.0 0.00 0.17 0.00 69 1008.1
20200602062855 58 187 1.0 5.0 0.00 0.17 0.00 69 1008.2
20200602062756 58 190 2.0 5.0 0.00 0.17 0.00 69 1008.2
20200602062655 58 192 2.0 5.0 0.00 0.17 0.00 69 1008.2
20200602062555 58 193 2.0 5.0 0.00 0.17 0.00 68 1008.1
20200602062456 58 192 2.0 5.0 0.00 0.17 0.00 68 1008.2
20200602062355 58 192 2.0 5.0 0.00 0.17 0.00 68 1008.2
20200602062255 58 192 2.0 5.0 0.00 0.17 0.00 68 1008.2
20200602062156 58 192 2.0 5.0 0.00 0.17 0.00 68 1008.1
20200602062056 58 193 2.0 6.0 0.00 0.17 0.00 68 1008.2
20200602061956 58 191 2.0 6.0 0.00 0.17 0.00 68 1008.3
20200602061856 58 190 2.0 6.0 0.00 0.17 0.00 68 1008.2
20200602061756 58 189 2.0 6.0 0.00 0.17 0.00 68 1008.3
20200602061656 58 191 2.0 6.0 0.00 0.17 0.00 68 1008.3
20200602061556 58 192 2.0 6.0 0.00 0.17 0.00 68 1008.3
20200602061457 58 194 2.0 6.0 0.00 0.17 0.00 68 1008.3
20200602061356 58 194 2.0 6.0 0.00 0.17 0.00 68 1008.3
20200602061256 58 193 2.0 8.0 0.00 0.17 0.00 67 1008.4
20200602061156 58 194 3.0 8.0 0.00 0.17 0.00 67 1008.3
20200602061056 58 194 2.0 8.0 0.00 0.17 0.00 67 1008.3
20200602060956 58 194 2.0 8.0 0.00 0.17 0.00 67 1008.3
20200602060856 58 194 3.0 8.0 0.00 0.17 0.00 67 1008.3
20200602060756 58 194 3.0 8.0 0.00 0.17 0.00 67 1008.3
20200602060656 58 193 2.0 8.0 0.00 0.17 0.00 67 1008.4
20200602060556 58 192 2.0 8.0 0.00 0.17 0.00 67 1008.3
20200602060456 58 193 3.0 8.0 0.00 0.17 0.00 67 1008.3
20200602060356 58 192 3.0 8.0 0.00 0.17 0.00 67 1008.3
20200602060256 58 194 2.0 6.0 0.00 0.17 0.00 67 1008.4
20200602060156 58 193 2.0 7.0 0.00 0.17 0.00 67 1008.4
20200602060055 58 194 2.0 7.0 0.00 0.17 0.00 67 1008.4
20200602060000 58 196 3.0 7.0 0.00 0.17 0.00 67 1008.4
20200602055857 58 196 3.0 7.0 0.00 0.17 0.00 67 1008.4
20200602055757 58 197 3.0 7.0 0.00 0.17 0.00 67 1008.5
20200602055656 58 196 3.0 7.0 0.00 0.17 0.00 66 1008.5
20200602055556 58 194 3.0 7.0 0.00 0.17 0.00 67 1008.5
20200602055456 58 194 3.0 7.0 0.00 0.17 0.00 66 1008.5
20200602055356 58 195 3.0 7.0 0.00 0.17 0.00 66 1008.5
20200602055256 58 193 3.0 7.0 0.00 0.17 0.00 66 1008.5
20200602055156 58 193 3.0 6.0 0.00 0.17 0.00 66 1008.5
20200602055056 58 194 3.0 6.0 0.00 0.17 0.00 66 1008.5
20200602054956 58 195 2.0 6.0 0.00 0.17 0.00 66 1008.5
20200602054856 58 196 2.0 6.0 0.00 0.17 0.00 66 1008.6
20200602054756 58 194 2.0 6.0 0.00 0.17 0.00 66 1008.6
20200602054656 58 195 2.0 6.0 0.00 0.17 0.00 66 1008.6
20200602054556 58 195 2.0 6.0 0.00 0.17 0.00 66 1008.7
20200602054456 58 195 2.0 6.0 0.00 0.17 0.00 66 1008.6
20200602054356 58 192 2.0 6.0 0.00 0.17 0.00 66 1008.6
20200602054257 58 194 2.0 6.0 0.00 0.17 0.00 66 1008.7
20200602054156 58 190 2.0 6.0 0.00 0.17 0.00 66 1008.7
20200602054056 58 189 2.0 6.0 0.00 0.17 0.00 66 1008.6
20200602053957 58 187 2.0 7.0 0.00 0.17 0.00 66 1008.6
20200602053856 58 185 2.0 7.0 0.00 0.17 0.00 66 1008.6
20200602053757 58 185 2.0 7.0 0.00 0.17 0.00 66 1008.7
20200602053656 58 184 2.0 7.0 0.00 0.17 0.00 66 1008.7
20200602053556 58 184 2.0 7.0 0.00 0.17 0.00 66 1008.8
20200602053457 58 183 2.0 7.0 0.00 0.17 0.00 66 1008.8
20200602053356 58 183 2.0 7.0 0.00 0.17 0.00 66 1008.8
20200602053256 58 184 2.0 7.0 0.00 0.17 0.00 66 1008.8
20200602053156 58 186 3.0 7.0 0.00 0.17 0.00 66 1008.8
20200602053056 58 185 3.0 7.0 0.00 0.17 0.00 66 1008.9
20200602052958 58 185 2.0 7.0 0.00 0.17 0.00 66 1008.9
20200602052856 58 185 2.0 7.0 0.00 0.17 0.00 66 1009.0
20200602052757 58 185 2.0 7.0 0.00 0.17 0.00 66 1009.0
20200602052656 58 185 2.0 7.0 0.00 0.17 0.00 66 1009.0
20200602052556 58 185 2.0 7.0 0.00 0.17 0.00 66 1009.0
20200602052458 58 186 2.0 7.0 0.00 0.17 0.00 66 1009.0
20200602052357 58 187 3.0 7.0 0.00 0.17 0.00 66 1009.1
20200602052258 58 185 2.0 7.0 0.00 0.17 0.00 65 1009.0
20200602052159 58 186 2.0 7.0 0.00 0.17 0.00 65 1009.1
20200602052056 58 189 2.0 7.0 0.00 0.17 0.00 65 1009.1
20200602051957 58 188 2.0 7.0 0.00 0.17 0.00 65 1009.0
20200602051857 58 188 3.0 7.0 0.00 0.17 0.00 65 1009.1
20200602051757 58 188 3.0 7.0 0.00 0.17 0.00 65 1009.1
20200602051657 58 189 3.0 7.0 0.00 0.17 0.00 65 1009.1
20200602051556 58 190 3.0 7.0 0.00 0.17 0.00 65 1009.1
20200602051457 58 191 2.0 7.0 0.00 0.17 0.00 65 1009.1
20200602051157 58 193 3.0 8.0 0.00 0.17 0.00 65 1009.2
20200602051056 58 192 3.0 9.0 0.00 0.17 0.00 65 1009.2
20200602050957 58 194 3.0 10.0 0.00 0.17 0.00 65 1009.3
20200602050857 58 193 3.0 10.0 0.00 0.17 0.00 65 1009.2
20200602050757 58 192 3.0 10.0 0.00 0.17 0.00 65 1009.2
20200602050656 58 193 3.0 10.0 0.00 0.17 0.00 65 1009.2
20200602050556 58 191 3.0 10.0 0.00 0.17 0.00 65 1009.2
20200602050457 58 190 3.0 10.0 0.00 0.17 0.00 65 1009.2
20200602050356 58 189 3.0 10.0 0.00 0.17 0.00 64 1009.3
20200602050257 58 189 3.0 10.0 0.00 0.17 0.00 64 1009.2
20200602050157 57 189 3.0 10.0 0.00 0.17 0.00 64 1009.3
20200602050057 57 188 3.0 10.0 0.00 0.17 0.00 64 1009.3
20200602045959 57 184 2.0 6.0 0.00 0.17 0.00 64 1009.3
20200602045858 57 184 2.0 7.0 0.00 0.17 0.00 64 1009.3
20200602045758 57 184 3.0 9.0 0.00 0.17 0.00 64 1009.3
20200602045658 57 184 3.0 9.0 0.00 0.17 0.00 64 1009.3
20200602045558 57 185 3.0 9.0 0.00 0.17 0.00 64 1009.4
20200602045457 57 186 3.0 9.0 0.00 0.17 0.00 64 1009.3
20200602045357 57 187 3.0 9.0 0.00 0.17 0.00 64 1009.4
20200602045257 57 185 3.0 9.0 0.00 0.17 0.00 64 1009.4
20200602045157 57 186 3.0 9.0 0.00 0.17 0.00 64 1009.4
20200602045056 57 187 3.0 10.0 0.00 0.17 0.00 64 1009.4
20200602044957 57 188 3.0 10.0 0.00 0.17 0.00 64 1009.4
20200602044857 57 189 4.0 11.0 0.00 0.17 0.00 64 1009.5
20200602044757 57 192 3.0 11.0 0.00 0.17 0.00 64 1009.4
20200602044657 57 190 3.0 11.0 0.00 0.17 0.00 64 1009.5
20200602044557 57 190 4.0 11.0 0.00 0.17 0.00 64 1009.4
20200602044456 57 189 4.0 11.0 0.00 0.17 0.00 64 1009.5
20200602044357 57 191 4.0 11.0 0.00 0.17 0.00 64 1009.4
20200602044257 57 190 4.0 11.0 0.00 0.17 0.00 64 1009.5
20200602044157 57 190 4.0 11.0 0.00 0.17 0.00 64 1009.4
20200602044057 57 189 4.0 11.0 0.00 0.17 0.00 64 1009.5
20200602043957 57 191 4.0 11.0 0.00 0.17 0.00 64 1009.5
20200602043857 57 190 4.0 11.0 0.01 0.17 0.00 64 1009.5
20200602043757 57 190 4.0 11.0 0.01 0.17 0.00 64 1009.5
20200602043657 57 190 4.0 11.0 0.01 0.17 0.00 64 1009.5
20200602043557 57 190 4.0 11.0 0.01 0.17 0.00 64 1009.6
20200602043457 57 191 4.0 11.0 0.02 0.17 0.00 64 1009.6
20200602043357 57 189 4.0 11.0 0.02 0.17 0.00 64 1009.6
20200602043258 57 191 4.0 11.0 0.02 0.17 0.00 64 1009.6
20200602043157 57 191 4.0 11.0 0.02 0.17 0.00 64 1009.7
20200602043057 57 191 5.0 11.0 0.02 0.17 0.00 64 1009.6
20200602043000 57 189 5.0 13.0 0.03 0.17 0.00 64 1009.6
20200602042857 57 190 5.0 13.0 0.03 0.17 0.00 64 1009.7
20200602042757 57 189 5.0 13.0 0.04 0.17 0.00 64 1009.7
20200602042657 57 190 5.0 13.0 0.04 0.17 0.00 64 1009.7
20200602042558 57 190 4.0 13.0 0.04 0.17 0.00 64 1009.8
20200602042458 57 190 4.0 13.0 0.04 0.17 0.00 64 1009.8
20200602042358 57 192 4.0 13.0 0.04 0.17 0.00 64 1009.8